M I D A S
Marine Information and Data Acquisition System
Tripno 744 of the Zeeleeuw from 2004-07-05 06:15:59 to 2004-07-05 13:01:16
Back to CruiseResearch ActivitiesStationsMapUnderway DataData graphs

EquipmentUnitsComment
TimeDGPSUTC
LatitudeDGPSDM.mWGS84
LongitudeDGPSDM.mWGS84
TemperatureSBE03/SBE38deg celciusITS90
ConductivitySBE21S/mITS90
SalinitySBE21 Practical Salinity Units
ChlorophylAChelsea fluorimeterg/lCalibrated in Aceton
Missing or incorrect values are displayed as -999
Sea surface data collected by the RV Zeeleeuw from 2004-07-05 06:15:59 to 2004-07-05 13:01:16
                                                                                    Next 1000 lines
Time Latitude Longitude Temperature Conductivity Salinity ChlorophylA
2004-07-05 06:16:08 51°13.603 2°56.066 18.995624 0.062337 0.350386 -0.612702
2004-07-05 06:16:13 51°13.605 2°56.06 18.994556 0.062337 0.350386 -0.578993
2004-07-05 06:16:17 51°13.607 2°56.055 19.00174 0.062337 0.350386 -0.612702
2004-07-05 06:16:23 51°13.611 2°56.046 18.988193 0.062337 0.350392 -0.612702
2004-07-05 06:16:27 51°13.613 2°56.041 19.001493 0.062337 0.350392 -0.612702
2004-07-05 06:16:33 51°13.616 2°56.032 19.008142 0.062337 0.350392 -0.578993
2004-07-05 06:16:38 51°13.619 2°56.025 19.008142 0.062337 0.350392 -0.578993
2004-07-05 06:16:43 51°13.621 2°56.017 19.008676 0.062337 0.350398 -0.578993
2004-07-05 06:16:47 51°13.624 2°56.011 19.007322 0.062337 0.350386 -0.578993
2004-07-05 06:16:53 51°13.626 2°56.001 19.009784 0.062337 0.350392 -0.578993
2004-07-05 06:16:57 51°13.628 2°55.994 19.006665 0.062337 0.350392 -0.612702
2004-07-05 06:17:03 51°13.632 2°55.984 19.005598 0.062337 0.350392 -0.612702
2004-07-05 06:17:07 51°13.634 2°55.977 19.005598 0.062337 0.350392 -0.612702
2004-07-05 06:17:13 51°13.637 2°55.966 18.998045 0.062337 0.350392 -0.578993
2004-07-05 06:17:18 51°13.64 2°55.958 19.002273 0.062337 0.350398 -0.578993
2004-07-05 06:17:23 51°13.643 2°55.949 19.00096 0.062337 0.350398 -0.612702
2004-07-05 06:17:28 51°13.645 2°55.94 19.002191 0.062337 0.350398 -0.578993
2004-07-05 06:17:33 51°13.648 2°55.93 19.002191 0.062337 0.350398 -0.578993
2004-07-05 06:17:37 51°13.65 2°55.923 18.998169 0.062337 0.350403 -0.578993
2004-07-05 06:17:43 51°13.652 2°55.911 19.005146 0.062337 0.350403 -0.578993
2004-07-05 06:17:48 51°13.655 2°55.901 19.014791 0.062337 0.350403 -0.578993
2004-07-05 06:17:53 51°13.656 2°55.891 19.011426 0.062337 0.350403 -0.612702
2004-07-05 06:17:58 51°13.658 2°55.881 19.016104 0.062337 0.350403 -0.612702
2004-07-05 06:18:03 51°13.66 2°55.872 19.011261 0.062337 0.350403 -0.612702
2004-07-05 06:18:08 51°13.662 2°55.862 19.011261 0.062337 0.350403 -0.612702
2004-07-05 06:18:13 51°13.664 2°55.851 19.014298 0.062337 0.350403 -0.612702
2004-07-05 06:18:18 51°13.665 2°55.841 18.922765 0.062337 0.349947 -0.612702
2004-07-05 06:18:23 51°13.666 2°55.831 18.940802 0.062337 0.349713 -0.612702
2004-07-05 06:18:28 51°13.667 2°55.821 18.960107 0.062337 0.349754 -0.612702
2004-07-05 06:18:33 51°13.667 2°55.812 18.95867 0.062337 0.349818 -0.612702
2004-07-05 06:18:37 51°13.668 2°55.805 18.95867 0.062337 0.349818 -0.612702
2004-07-05 06:18:43 51°13.668 2°55.795 18.967951 0.062337 0.349865 -0.578993
2004-07-05 06:18:48 51°13.668 2°55.789 18.97099 0.062337 0.349865 -0.578993
2004-07-05 06:18:52 51°13.668 2°55.785 18.965077 0.062337 0.34983 -0.578993
2004-07-05 06:18:57 51°13.668 2°55.782 18.977765 0.062337 0.349778 -0.578993
2004-07-05 06:19:03 51°13.669 2°55.779 18.9955 0.062337 0.349754 -0.578993
2004-07-05 06:19:08 51°13.669 2°55.779 18.9955 0.062337 0.349754 -0.578993
2004-07-05 06:19:13 51°13.67 2°55.78 19.013067 0.062337 0.349748 -0.578993
2004-07-05 06:19:17 51°13.671 2°55.781 19.022629 0.062337 0.349772 -0.578993
2004-07-05 06:19:23 51°13.673 2°55.784 19.032804 0.062337 0.349795 -0.612702
2004-07-05 06:19:27 51°13.675 2°55.786 19.0104 0.062337 0.349842 -0.578993
2004-07-05 06:19:33 51°13.677 2°55.788 18.964255 0.062337 0.349877 -0.612702
2004-07-05 06:19:37 51°13.678 2°55.789 18.964255 0.062337 0.349877 -0.612702
2004-07-05 06:19:43 51°13.679 2°55.79 18.969922 0.062337 0.3499 -0.578993
2004-07-05 06:19:44 51°13.679 2°55.79 18.980475 0.062337 0.349906 -0.578993
2004-07-05 06:19:52 51°13.678 2°55.789 18.962366 0.062337 0.349906 -0.612702
2004-07-05 06:19:57 51°13.676 2°55.788 18.997881 0.062337 0.3499 -0.578993
2004-07-05 06:20:03 51°13.674 2°55.786 18.985853 0.062337 0.349894 -0.612702
2004-07-05 06:20:05 51°13.674 2°55.785 18.985853 0.062337 0.349894 -0.612702
2004-07-05 06:20:13 51°13.669 2°55.782 18.992791 0.062337 0.349894 -0.578993
2004-07-05 06:20:18 51°13.666 2°55.78 18.986757 0.062337 0.349894 -0.578993
2004-07-05 06:20:24 51°13.663 2°55.778 18.998661 0.062337 0.349894 -0.612702
2004-07-05 06:20:28 51°13.661 2°55.776 19.000016 0.062337 0.3499 -0.612702
2004-07-05 06:20:33 51°13.659 2°55.775 19.015324 0.062337 0.3499 -0.578993
2004-07-05 06:20:37 51°13.659 2°55.775 19.015324 0.062337 0.3499 -0.578993
2004-07-05 06:20:43 51°13.659 2°55.775 19.050115 0.062337 0.349906 -0.612702
2004-07-05 06:20:47 51°13.66 2°55.775 19.041132 0.062337 0.349906 -0.578993
2004-07-05 06:20:53 51°13.663 2°55.774 19.060164 0.062337 0.349918 -0.612702
2004-07-05 06:20:57 51°13.665 2°55.773 19.086119 0.062337 0.349924 -0.612702
2004-07-05 06:21:03 51°13.669 2°55.771 19.086119 0.062337 0.349924 -0.612702
2004-07-05 06:21:07 51°13.672 2°55.769 19.087717 0.062337 0.349924 -0.612702
2004-07-05 06:21:13 51°13.678 2°55.765 19.076853 0.062337 0.349929 -0.612702
2004-07-05 06:21:18 51°13.683 2°55.761 19.035594 0.062337 0.349918 -0.578993
2004-07-05 06:21:23 51°13.689 2°55.756 19.028824 0.062337 0.349924 -0.578993
2004-07-05 06:21:27 51°13.693 2°55.751 19.00884 0.062337 0.349912 -0.578993
2004-07-05 06:21:33 51°13.7 2°55.743 19.000262 0.062337 0.349912 -0.612702
2004-07-05 06:21:35 51°13.703 2°55.74 19.000262 0.062337 0.349912 -0.612702
2004-07-05 06:21:42 51°13.712 2°55.731 18.996404 0.062337 0.349912 -0.578993
2004-07-05 06:21:48 51°13.72 2°55.724 18.991929 0.062337 0.349918 -0.578993
2004-07-05 06:21:52 51°13.726 2°55.719 18.991437 0.062337 0.349924 -0.578993
2004-07-05 06:21:56 51°13.732 2°55.713 18.99353 0.062337 0.349935 -0.612702
2004-07-05 06:22:01 51°13.74 2°55.706 18.997225 0.062337 0.349941 -0.612702
2004-07-05 06:22:08 51°13.751 2°55.697 18.997225 0.062337 0.349941 -0.612702
2004-07-05 06:22:13 51°13.759 2°55.69 18.994803 0.062337 0.349941 -0.612702
2004-07-05 06:22:17 51°13.766 2°55.685 18.996609 0.062337 0.349941 -0.612702
2004-07-05 06:22:23 51°13.776 2°55.676 18.996773 0.062337 0.349929 -0.612702
2004-07-05 06:22:27 51°13.782 2°55.67 18.993366 0.062337 0.349929 -0.612702
2004-07-05 06:22:33 51°13.792 2°55.661 18.991888 0.062337 0.349929 -0.578993
2004-07-05 06:22:37 51°13.799 2°55.656 18.991888 0.062337 0.349929 -0.578993
2004-07-05 06:22:42 51°13.808 2°55.649 18.996773 0.062337 0.349924 -0.578993
2004-07-05 06:22:47 51°13.817 2°55.642 18.989014 0.062337 0.349918 -0.578993
2004-07-05 06:22:52 51°13.826 2°55.635 18.985443 0.062337 0.349924 -0.612702
2004-07-05 06:22:57 51°13.835 2°55.628 18.991108 0.062337 0.349918 -0.578993
2004-07-05 06:23:03 51°13.845 2°55.619 18.993735 0.062337 0.349924 -0.612702
2004-07-05 06:23:08 51°13.854 2°55.612 18.993735 0.062337 0.349924 -0.612702
2004-07-05 06:23:13 51°13.864 2°55.605 18.999195 0.062337 0.349929 -0.612702
2004-07-05 06:23:17 51°13.872 2°55.6 19.00059 0.062337 0.349929 -0.612702
2004-07-05 06:23:23 51°13.884 2°55.593 19.004818 0.062337 0.349929 -0.612702
2004-07-05 06:23:27 51°13.892 2°55.588 19.00609 0.062337 0.349935 -0.612702
2004-07-05 06:23:33 51°13.904 2°55.58 19.004982 0.062337 0.349924 -0.578993
2004-07-05 06:23:36 51°13.91 2°55.576 19.004982 0.062337 0.349924 -0.578993
2004-07-05 06:23:43 51°13.924 2°55.567 19.005598 0.062337 0.349924 -0.578993
2004-07-05 06:23:48 51°13.935 2°55.561 19.006254 0.062337 0.349918 -0.578993
2004-07-05 06:23:53 51°13.945 2°55.555 19.007445 0.062337 0.349912 -0.578993
2004-07-05 06:23:57 51°13.953 2°55.55 19.005885 0.062337 0.349912 -0.646411
2004-07-05 06:24:03 51°13.966 2°55.542 19.005885 0.062337 0.349912 -0.646411
2004-07-05 06:24:07 51°13.974 2°55.537 19.007404 0.062337 0.349912 -0.612702
2004-07-05 06:24:10 51°13.98 2°55.534 18.997471 0.062337 0.349906 -0.612702
2004-07-05 06:24:17 51°13.995 2°55.525 19.009538 0.062337 0.349906 -0.612702
2004-07-05 06:24:23 51°14.007 2°55.518 19.009209 0.062337 0.349906 -0.578993
2004-07-05 06:24:27 51°14.016 2°55.513 19.003751 0.062337 0.349906 -0.612702
2004-07-05 06:24:32 51°14.027 2°55.507 19.010564 0.062337 0.349906 -0.612702
2004-07-05 06:24:37 51°14.037 2°55.501 19.010564 0.062337 0.349906 -0.612702
2004-07-05 06:24:43 51°14.049 2°55.492 19.012657 0.062337 0.349906 -0.612702
2004-07-05 06:24:47 51°14.058 2°55.487 19.015694 0.062337 0.349906 -0.578993
2004-07-05 06:24:53 51°14.071 2°55.478 19.015858 0.062337 0.349912 -0.612702
2004-07-05 06:24:57 51°14.079 2°55.472 19.016227 0.062337 0.349906 -0.578993
2004-07-05 06:25:03 51°14.092 2°55.463 19.016063 0.062337 0.349912 -0.578993
2004-07-05 06:25:07 51°14.101 2°55.458 19.016063 0.062337 0.349912 -0.578993
2004-07-05 06:25:12 51°14.113 2°55.45 19.020987 0.062233 0.349304 -0.612702
2004-07-05 06:25:17 51°14.124 2°55.441 19.021356 0.062337 0.349906 -0.612702
2004-07-05 06:25:23 51°14.137 2°55.43 19.027224 0.062233 0.349304 -0.578993
2004-07-05 06:25:27 51°14.146 2°55.422 19.033748 0.062233 0.34931 -0.612702
2004-07-05 06:25:33 51°14.159 2°55.41 19.046465 0.062233 0.34931 -0.578993
2004-07-05 06:25:37 51°14.169 2°55.401 19.046465 0.062233 0.34931 -0.578993
2004-07-05 06:25:43 51°14.182 2°55.387 19.033994 0.062233 0.34931 -0.578993
2004-07-05 06:25:47 51°14.192 2°55.377 19.03424 0.062337 0.349912 -0.612702
2004-07-05 06:25:50 51°14.198 2°55.369 19.028209 0.062337 0.349918 -0.545283
2004-07-05 06:25:57 51°14.214 2°55.349 19.020043 0.062233 0.34931 -0.612702
2004-07-05 06:26:03 51°14.227 2°55.33 19.021931 0.062337 0.349906 -0.578993
2004-07-05 06:26:08 51°14.238 2°55.314 19.021931 0.062337 0.349906 -0.578993
2004-07-05 06:26:12 51°14.246 2°55.301 19.012698 0.062337 0.349912 -0.612702
2004-07-05 06:26:23 51°14.268 2°55.262 19.033542 0.062337 0.349912 -0.612702
2004-07-05 06:26:28 51°14.277 2°55.244 19.020208 0.062337 0.349912 -0.578993
2004-07-05 06:26:33 51°14.287 2°55.224 19.004284 0.062233 0.349281 -0.578993
2004-07-05 06:26:37 51°14.294 2°55.209 19.004284 0.062233 0.349281 -0.578993
2004-07-05 06:26:43 51°14.305 2°55.185 18.996609 0.062337 0.349859 -0.578993
2004-07-05 06:26:48 51°14.314 2°55.164 18.998579 0.062337 0.349848 -0.612702
2004-07-05 06:26:53 51°14.324 2°55.144 18.991929 0.062337 0.349848 -0.612702
2004-07-05 06:26:57 51°14.331 2°55.127 19.028783 0.062337 0.349848 -0.612702
2004-07-05 06:27:03 51°14.341 2°55.101 18.994433 0.062337 0.349842 -0.578993
2004-07-05 06:27:08 51°14.35 2°55.079 18.994433 0.062337 0.349842 -0.578993
2004-07-05 06:27:11 51°14.356 2°55.066 18.966473 0.062337 0.349824 -0.612702
2004-07-05 06:27:21 51°14.375 2°55.023 18.955384 0.062337 0.349789 -0.612702
2004-07-05 06:27:27 51°14.387 2°54.997 19.022875 0.062337 0.349813 -0.612702
2004-07-05 06:27:31 51°14.395 2°54.98 19.022875 0.062337 0.349813 -0.612702
2004-07-05 06:27:37 51°14.406 2°54.952 19.041829 0.062337 0.349836 -0.612702
2004-07-05 06:27:41 51°14.413 2°54.933 19.077304 0.062337 0.349859 -0.612702
2004-07-05 06:27:46 51°14.421 2°54.909 19.037891 0.062337 0.349836 -0.612702
2004-07-05 06:27:51 51°14.429 2°54.884 19.013888 0.062337 0.349818 -0.578993
2004-07-05 06:27:55 51°14.436 2°54.864 19.00293 0.062337 0.349813 -0.578993
2004-07-05 06:28:01 51°14.446 2°54.834 19.00293 0.062337 0.349813 -0.578993
2004-07-05 06:28:07 51°14.457 2°54.806 18.991026 0.062233 0.349246 -0.578993
2004-07-05 06:28:12 51°14.465 2°54.781 19.0511 0.062337 0.349906 -0.612702
2004-07-05 06:28:15 51°14.47 2°54.766 19.065536 0.062337 0.349929 -0.612702
2004-07-05 06:28:21 51°14.478 2°54.735 19.079477 0.062337 0.349929 -0.612702
2004-07-05 06:28:27 51°14.486 2°54.703 19.099851 0.062337 0.349935 -0.578993
2004-07-05 06:28:32 51°14.49 2°54.676 19.099851 0.062337 0.349935 -0.578993
2004-07-05 06:28:36 51°14.493 2°54.654 19.105425 0.062337 0.349889 -0.578993
2004-07-05 06:28:41 51°14.495 2°54.626 19.073286 0.062337 0.349824 -0.578993
2004-07-05 06:28:46 51°14.496 2°54.6 19.05032 0.062337 0.349795 -0.578993
2004-07-05 06:28:52 51°14.497 2°54.57 19.049008 0.062337 0.349783 -0.578993
2004-07-05 06:28:56 51°14.496 2°54.552 19.049008 0.062337 0.349783 -0.578993
2004-07-05 06:29:01 51°14.494 2°54.531 19.067094 0.062337 0.349801 -0.578993
2004-07-05 06:29:07 51°14.492 2°54.507 19.085586 0.062337 0.34983 -0.578993
2004-07-05 06:29:12 51°14.49 2°54.49 19.063239 0.062337 0.349836 -0.578993
2004-07-05 06:29:15 51°14.488 2°54.48 19.054258 0.062337 0.349842 -0.578993
2004-07-05 06:29:21 51°14.485 2°54.46 19.047449 0.062337 0.349842 -0.578993
2004-07-05 06:29:26 51°14.483 2°54.445 19.053273 0.062337 0.349848 -0.578993
2004-07-05 06:29:32 51°14.48 2°54.429 19.053273 0.062337 0.349848 -0.578993
2004-07-05 06:29:35 51°14.478 2°54.42 19.06205 0.062337 0.349854 -0.578993
2004-07-05 06:29:41 51°14.475 2°54.405 19.073614 0.062337 0.349871 -0.612702
2004-07-05 06:29:47 51°14.472 2°54.39 19.069144 0.062337 0.349871 -0.578993
2004-07-05 06:29:52 51°14.47 2°54.378 19.073532 0.062337 0.3499 -0.578993
2004-07-05 06:29:57 51°14.468 2°54.367 19.068324 0.062337 0.349889 -0.612702
2004-07-05 06:30:00 51°14.467 2°54.36 19.068324 0.062337 0.349889 -0.612702
2004-07-05 06:30:06 51°14.464 2°54.347 19.060369 0.062337 0.349918 -0.578993
2004-07-05 06:30:12 51°14.462 2°54.335 19.058113 0.062337 0.349976 -0.578993
2004-07-05 06:30:16 51°14.46 2°54.327 19.053519 0.062337 0.350023 -0.612702
2004-07-05 06:30:21 51°14.458 2°54.317 19.062952 0.062337 0.350023 -0.612702
2004-07-05 06:30:27 51°14.456 2°54.306 19.06529 0.062337 0.350046 -0.578993
2004-07-05 06:30:31 51°14.454 2°54.299 19.06529 0.062337 0.350046 -0.578993
2004-07-05 06:30:37 51°14.452 2°54.288 19.056678 0.062337 0.350058 -0.646411
2004-07-05 06:30:41 51°14.451 2°54.281 19.062214 0.062337 0.350058 -0.578993
2004-07-05 06:30:47 51°14.449 2°54.27 19.059548 0.062337 0.350058 -0.612702
2004-07-05 06:30:51 51°14.447 2°54.264 19.078821 0.062337 0.350099 -0.612702
2004-07-05 06:30:56 51°14.445 2°54.255 19.073286 0.062337 0.350093 -0.612702
2004-07-05 06:31:01 51°14.444 2°54.247 19.073286 0.062337 0.350093 -0.612702
2004-07-05 06:31:07 51°14.442 2°54.238 19.070826 0.062337 0.35014 -0.612702
2004-07-05 06:31:11 51°14.441 2°54.232 19.066356 0.062337 0.350128 -0.612702
2004-07-05 06:31:16 51°14.439 2°54.224 19.073614 0.062337 0.350111 -0.578993
2004-07-05 06:31:21 51°14.437 2°54.217 19.072548 0.062337 0.350122 -0.578993
2004-07-05 06:31:27 51°14.436 2°54.208 19.077509 0.062337 0.350122 -0.612702
2004-07-05 06:31:31 51°14.434 2°54.202 19.077509 0.062337 0.350122 -0.612702
2004-07-05 06:31:36 51°14.433 2°54.195 19.078411 0.062337 0.350105 -0.578993
2004-07-05 06:31:41 51°14.431 2°54.189 19.085463 0.062337 0.350122 -0.612702
2004-07-05 06:31:47 51°14.43 2°54.181 19.069226 0.062337 0.350105 -0.578993
2004-07-05 06:31:51 51°14.429 2°54.175 19.078411 0.062337 0.350105 -0.612702
2004-07-05 06:31:56 51°14.427 2°54.169 19.071851 0.062337 0.350122 -0.578993
2004-07-05 06:32:01 51°14.426 2°54.163 19.071851 0.062337 0.350122 -0.578993
2004-07-05 06:32:07 51°14.425 2°54.155 19.096941 0.062337 0.350157 -0.612702
2004-07-05 06:32:12 51°14.423 2°54.149 19.085217 0.062337 0.350146 -0.612702
2004-07-05 06:32:15 51°14.423 2°54.145 19.07509 0.062337 0.35014 -0.612702
2004-07-05 06:32:25 51°14.42 2°54.133 19.079641 0.062337 0.350122 -0.612702
2004-07-05 06:32:31 51°14.418 2°54.123 19.134641 0.062337 0.350181 -0.612702
2004-07-05 06:32:36 51°14.417 2°54.113 19.124521 0.062337 0.350198 -0.578993
2004-07-05 06:32:40 51°14.415 2°54.104 19.132142 0.062337 0.350234 -0.578993
2004-07-05 06:32:45 51°14.412 2°54.092 19.130298 0.062337 0.350251 -0.646411
2004-07-05 06:32:51 51°14.408 2°54.076 19.130298 0.062337 0.350251 -0.646411
2004-07-05 06:32:55 51°14.405 2°54.065 19.102064 0.062337 0.350245 -0.612702
2004-07-05 06:33:01 51°14.4 2°54.047 19.103458 0.062337 0.350239 -0.612702
2004-07-05 06:33:05 51°14.396 2°54.034 19.105876 0.062337 0.350216 -0.612702
2004-07-05 06:33:11 51°14.389 2°54.014 19.102105 0.062337 0.350204 -0.612702
2004-07-05 06:33:16 51°14.383 2°53.997 19.092022 0.062337 0.350193 -0.612702
2004-07-05 06:33:20 51°14.377 2°53.982 19.092022 0.062337 0.350193 -0.612702
2004-07-05 06:33:24 51°14.372 2°53.967 19.087185 0.062337 0.350152 -0.578993
2004-07-05 06:33:31 51°14.361 2°53.939 19.090751 0.062337 0.350146 -0.612702
2004-07-05 06:33:35 51°14.354 2°53.922 19.062583 0.062337 0.350128 -0.578993
2004-07-05 06:33:40 51°14.345 2°53.9 19.06447 0.062337 0.350093 -0.612702
2004-07-05 06:33:43 51°14.339 2°53.886 19.056144 0.062337 0.350087 -0.612702
2004-07-05 06:33:51 51°14.323 2°53.848 19.044373 0.062441 0.350666 -0.612702
2004-07-05 06:33:55 51°14.315 2°53.829 19.044373 0.062441 0.350666 -0.612702
2004-07-05 06:33:59 51°14.307 2°53.809 19.030629 0.062337 0.350052 -0.612702
2004-07-05 06:34:05 51°14.294 2°53.778 19.031163 0.062337 0.350052 -0.612702
2004-07-05 06:34:09 51°14.286 2°53.758 19.036373 0.062337 0.350052 -0.612702
2004-07-05 06:34:15 51°14.274 2°53.727 19.044988 0.062337 0.350064 -0.612702
2004-07-05 06:34:21 51°14.261 2°53.695 19.038465 0.062337 0.350058 -0.578993
2004-07-05 06:34:24 51°14.255 2°53.679 19.038465 0.062337 0.350058 -0.578993
2004-07-05 06:34:29 51°14.244 2°53.653 19.08493 0.062337 0.350093 -0.612702
2004-07-05 06:34:36 51°14.23 2°53.615 19.048762 0.062337 0.350081 -0.612702
2004-07-05 06:34:40 51°14.221 2°53.594 19.052248 0.062337 0.35007 -0.612702
2004-07-05 06:34:43 51°14.215 2°53.578 19.044332 0.062337 0.350064 -0.612702
2004-07-05 06:34:51 51°14.198 2°53.535 19.070375 0.062337 0.350087 -0.612702
2004-07-05 06:34:55 51°14.189 2°53.514 19.070375 0.062337 0.350087 -0.612702
2004-07-05 06:35:03 51°14.172 2°53.472 19.073655 0.062441 0.350701 -0.578993
2004-07-05 06:35:11 51°14.155 2°53.429 19.070826 0.062441 0.350719 -0.646411
2004-07-05 06:35:15 51°14.146 2°53.408 19.103867 0.062441 0.350719 -0.578993
2004-07-05 06:35:21 51°14.132 2°53.377 19.075705 0.062441 0.350713 -0.612702
2004-07-05 06:35:25 51°14.124 2°53.356 19.075705 0.062441 0.350713 -0.612702
2004-07-05 06:35:31 51°14.11 2°53.324 19.068037 0.062441 0.350719 -0.578993
2004-07-05 06:35:35 51°14.102 2°53.303 19.063936 0.062441 0.35073 -0.612702
2004-07-05 06:35:41 51°14.089 2°53.271 19.070046 0.062441 0.350736 -0.612702
2004-07-05 06:35:45 51°14.08 2°53.25 19.105671 0.062441 0.35076 -0.578993
2004-07-05 06:35:51 51°14.066 2°53.219 19.065003 0.062545 0.351362 -0.612702
2004-07-05 06:35:55 51°14.057 2°53.198 19.065003 0.062545 0.351362 -0.612702
2004-07-05 06:36:01 51°14.043 2°53.167 19.080789 0.062545 0.35135 -0.612702
2004-07-05 06:36:05 51°14.034 2°53.146 19.073737 0.062441 0.350736 -0.578993
2004-07-05 06:36:11 51°14.021 2°53.114 19.067791 0.062441 0.350736 -0.578993
2004-07-05 06:36:15 51°14.012 2°53.093 19.090669 0.062545 0.351333 -0.612702
2004-07-05 06:36:21 51°13.999 2°53.061 19.090669 0.062545 0.351333 -0.612702
2004-07-05 06:36:25 51°13.99 2°53.04 19.075418 0.062441 0.350725 -0.578993
2004-07-05 06:36:31 51°13.977 2°53.008 19.082429 0.062441 0.350754 -0.612702
2004-07-05 06:36:35 51°13.969 2°52.987 19.09649 0.062441 0.35076 -0.612702
2004-07-05 06:36:41 51°13.956 2°52.954 19.089357 0.062441 0.350766 -0.578993
2004-07-05 06:36:45 51°13.948 2°52.933 19.108007 0.062441 0.350783 -0.578993
2004-07-05 06:36:51 51°13.935 2°52.901 19.077222 0.062545 0.35138 -0.612702
2004-07-05 06:36:56 51°13.924 2°52.874 19.077222 0.062545 0.35138 -0.612702
2004-07-05 06:37:00 51°13.916 2°52.853 19.103499 0.062545 0.351374 -0.578993
2004-07-05 06:37:05 51°13.905 2°52.826 19.116162 0.062441 0.350783 -0.612702
2004-07-05 06:37:11 51°13.892 2°52.794 19.089808 0.062441 0.350783 -0.578993
2004-07-05 06:37:16 51°13.881 2°52.768 19.085545 0.062441 0.350789 -0.612702
2004-07-05 06:37:21 51°13.87 2°52.741 19.117227 0.062545 0.351374 -0.612702
2004-07-05 06:37:25 51°13.861 2°52.72 19.117227 0.062545 0.351374 -0.612702
2004-07-05 06:37:31 51°13.848 2°52.688 19.07345 0.062545 0.351356 -0.612702
2004-07-05 06:37:35 51°13.839 2°52.667 19.109892 0.062545 0.35135 -0.578993
2004-07-05 06:37:41 51°13.825 2°52.636 19.113048 0.062545 0.351368 -0.578993
2004-07-05 06:37:45 51°13.816 2°52.615 19.093743 0.062545 0.351374 -0.612702
2004-07-05 06:37:51 51°13.803 2°52.584 19.114564 0.062545 0.351392 -0.612702
2004-07-05 06:37:56 51°13.792 2°52.557 19.114564 0.062545 0.351392 -0.612702
2004-07-05 06:37:59 51°13.785 2°52.541 19.180222 0.062545 0.351386 5.185315
2004-07-05 06:38:05 51°13.772 2°52.51 17.660303 0.210993 1.254301 4.207742
2004-07-05 06:38:10 51°13.761 2°52.483 17.196399 0.202353 1.202392 2.08405
2004-07-05 06:38:15 51°13.75 2°52.457 17.02612 1.490844 10.037502 9.129315
2004-07-05 06:38:21 51°13.736 2°52.426 16.935557 3.244549 23.214479 4.645965
2004-07-05 06:38:25 51°13.728 2°52.405 16.935557 3.244549 23.214479 4.645965
2004-07-05 06:38:31 51°13.714 2°52.373 16.889956 3.328698 24.013988 3.533554
2004-07-05 06:38:35 51°13.706 2°52.352 16.863419 3.458053 25.320544 3.600973
2004-07-05 06:38:39 51°13.697 2°52.33 16.833442 3.863017 28.904781 4.511127
2004-07-05 06:38:45 51°13.685 2°52.298 16.813788 4.223694 32.177926 4.207742
2004-07-05 06:38:51 51°13.673 2°52.264 16.786883 4.30648 33.040399 3.836939
2004-07-05 06:38:55 51°13.664 2°52.243 16.786883 4.30648 33.040399 3.836939
2004-07-05 06:38:59 51°13.656 2°52.221 16.787773 4.354257 33.57475 3.19646
2004-07-05 06:39:05 51°13.644 2°52.188 16.774338 4.370289 33.78044 2.65711
2004-07-05 06:39:11 51°13.632 2°52.156 16.764842 4.372399 33.8547 2.421144
2004-07-05 06:39:15 51°13.623 2°52.134 16.754667 4.371767 33.881935 2.151469
2004-07-05 06:39:25 51°13.603 2°52.08 16.741353 4.379678 33.985861 1.949212
2004-07-05 06:39:31 51°13.591 2°52.047 16.738596 4.388221 34.076223 1.848084
2004-07-05 06:39:36 51°13.581 2°52.02 16.740971 4.390753 34.116297 1.746956
2004-07-05 06:39:40 51°13.573 2°51.998 16.730326 4.39128 34.135863 1.645828
2004-07-05 06:39:45 51°13.563 2°51.971 16.740377 4.384847 34.094877 1.578409
2004-07-05 06:39:49 51°13.555 2°51.949 16.726381 4.394972 34.194878 1.51099
2004-07-05 06:39:55 51°13.543 2°51.916 16.726381 4.394972 34.194878 1.51099
2004-07-05 06:39:59 51°13.535 2°51.894 16.727654 4.392125 34.177595 1.409862
2004-07-05 06:40:05 51°13.523 2°51.862 16.721164 4.392652 34.18845 1.409862
2004-07-05 06:40:11 51°13.511 2°51.829 16.724812 4.394656 34.210291 1.376153
2004-07-05 06:40:14 51°13.504 2°51.813 16.742243 4.379996 34.086364 1.275024
2004-07-05 06:40:19 51°13.494 2°51.785 16.712764 4.394445 34.216604 1.275024
2004-07-05 06:40:25 51°13.482 2°51.753 16.712764 4.394445 34.216604 1.275024
2004-07-05 06:40:30 51°13.472 2°51.726 16.720655 4.331587 33.674502 1.241315
2004-07-05 06:40:35 51°13.462 2°51.698 16.734186 4.362805 33.947298 1.275024
2004-07-05 06:40:41 51°13.449 2°51.666 16.71514 4.385164 34.144508 1.241315
2004-07-05 06:40:45 51°13.441 2°51.644 16.710601 4.394445 34.222877 1.173896
2004-07-05 06:40:51 51°13.429 2°51.611 16.713867 4.395078 34.23153 1.173896
2004-07-05 06:40:55 51°13.421 2°51.589 16.713867 4.395078 34.23153 1.173896
2004-07-05 06:41:01 51°13.409 2°51.556 16.726297 4.3955 34.24023 1.173896
2004-07-05 06:41:05 51°13.401 2°51.534 16.717813 4.204828 32.585416 1.106477
2004-07-05 06:41:09 51°13.393 2°51.513 16.71268 4.394129 34.23016 1.140187
2004-07-05 06:41:15 51°13.381 2°51.48 16.709625 4.395817 34.249269 1.072768
2004-07-05 06:41:21 51°13.369 2°51.447 16.70831 4.38759 34.178804 1.106477
2004-07-05 06:41:23 51°13.365 2°51.436 16.70831 4.38759 34.178804 1.106477
2004-07-05 06:41:33 51°13.345 2°51.381 16.704873 4.387696 34.18035 1.140187
2004-07-05 06:41:38 51°13.335 2°51.354 16.70657 4.389594 34.198781 1.106477
2004-07-05 06:41:44 51°13.323 2°51.321 16.70657 4.389594 34.198781 1.106477
2004-07-05 06:41:48 51°13.315 2°51.3 16.711279 4.3955 34.249651 1.106477
2004-07-05 06:41:53 51°13.304 2°51.272 16.700715 4.395711 34.255261 1.106477
2004-07-05 06:41:59 51°13.292 2°51.239 16.706952 4.396661 34.264796 1.106477
2004-07-05 06:42:04 51°13.282 2°51.212 16.704491 4.396239 34.262374 1.106477
2004-07-05 06:42:07 51°13.276 2°51.196 16.704491 4.396239 34.262374 1.106477
2004-07-05 06:42:13 51°13.263 2°51.163 16.704067 4.396555 34.26702 0.93793
2004-07-05 06:42:19 51°13.251 2°51.13 16.700036 4.396028 34.261163 1.072768
2004-07-05 06:42:24 51°13.242 2°51.103 16.70657 4.396555 34.267649 1.005349
2004-07-05 06:42:28 51°13.233 2°51.081 16.705552 4.396766 34.270747 1.005349
2004-07-05 06:42:33 51°13.223 2°51.053 16.702242 4.39645 34.267986 1.005349
2004-07-05 06:42:39 51°13.211 2°51.021 16.70343 4.397083 34.275394 1.005349
2004-07-05 06:42:44 51°13.201 2°50.993 16.70343 4.397083 34.275394 1.005349
2004-07-05 06:42:48 51°13.193 2°50.971 16.705382 4.39761 34.281881 0.904221
2004-07-05 06:42:53 51°13.183 2°50.944 16.701606 4.397399 34.279412 0.904221
2004-07-05 06:42:59 51°13.17 2°50.911 16.702709 4.397294 34.278492 0.93793
2004-07-05 06:43:04 51°13.16 2°50.884 16.704576 4.397399 34.28067 0.836802
2004-07-05 06:43:09 51°13.15 2°50.856 16.701012 4.397294 34.279121 0.870512
2004-07-05 06:43:12 51°13.144 2°50.84 16.701012 4.397294 34.279121 0.870512
2004-07-05 06:43:19 51°13.129 2°50.802 16.698678 4.398032 34.284304 0.836802
2004-07-05 06:43:23 51°13.121 2°50.78 16.696896 4.397716 34.283431 0.803093
2004-07-05 06:43:29 51°13.109 2°50.748 16.697575 4.397716 34.28406 0.803093
2004-07-05 06:43:33 51°13.101 2°50.726 16.697278 4.397716 34.283431 0.769383
2004-07-05 06:43:38 51°13.09 2°50.699 16.70046 4.397927 34.285271 0.769383
2004-07-05 06:43:44 51°13.078 2°50.666 16.70046 4.397927 34.285271 0.769383
2004-07-05 06:43:47 51°13.072 2°50.649 16.700121 4.398032 34.289338 0.735674
2004-07-05 06:43:53 51°13.059 2°50.617 16.701309 4.398349 34.294617 0.735674
2004-07-05 06:43:59 51°13.047 2°50.584 16.70063 4.398349 34.294617 0.668255
2004-07-05 06:44:03 51°13.039 2°50.562 16.700757 4.398138 34.293406 0.735674
2004-07-05 06:44:09 51°13.027 2°50.529 16.702921 4.398243 34.293067 0.634546
2004-07-05 06:44:12 51°13.021 2°50.512 16.702921 4.398243 34.293067 0.634546
2004-07-05 06:44:19 51°13.007 2°50.474 16.699739 4.397927 34.290306 0.701965
2004-07-05 06:44:23 51°12.999 2°50.452 16.703218 4.398138 34.291517 0.668255
2004-07-05 06:44:29 51°12.987 2°50.419 16.695877 4.398032 34.289338 0.634546
2004-07-05 06:44:33 51°12.979 2°50.397 16.694901 4.398454 34.293649 0.600836
2004-07-05 06:44:39 51°12.966 2°50.364 16.697193 4.398559 34.29331 0.567127
2004-07-05 06:44:43 51°12.959 2°50.342 16.697193 4.398559 34.29331 0.567127
2004-07-05 06:44:47 51°12.95 2°50.32 16.695113 4.398981 34.296991 0.533418
2004-07-05 06:44:53 51°12.939 2°50.286 16.698678 4.398665 34.29486 0.600836
2004-07-05 06:44:59 51°12.926 2°50.253 16.697659 4.39877 34.297669 0.499708
2004-07-05 06:45:04 51°12.916 2°50.226 16.696514 4.399403 34.30571 0.533418
2004-07-05 06:45:07 51°12.91 2°50.21 16.695495 4.398981 34.302028 0.465999
2004-07-05 06:45:13 51°12.898 2°50.177 16.695495 4.398981 34.302028 0.465999
2004-07-05 06:45:19 51°12.886 2°50.144 16.700036 4.399087 34.302319 0.499708
2004-07-05 06:45:24 51°12.875 2°50.116 16.699569 4.399403 34.30571 0.465999
2004-07-05 06:45:28 51°12.867 2°50.094 16.698169 4.399298 34.30416 0.499708
2004-07-05 06:45:33 51°12.857 2°50.067 16.698084 4.399403 34.30634 0.533418
2004-07-05 06:45:39 51°12.844 2°50.034 16.698084 4.399403 34.30634 0.533418
2004-07-05 06:45:44 51°12.834 2°50.007 16.700036 4.399192 34.303869 0.567127
2004-07-05 06:45:48 51°12.826 2°49.985 16.698678 4.399192 34.304499 0.432289
2004-07-05 06:45:54 51°12.814 2°49.951 16.699187 4.399298 34.30416 0.465999
2004-07-05 06:45:57 51°12.809 2°49.935 16.69749 4.399614 34.307551 0.465999
2004-07-05 06:46:04 51°12.795 2°49.896 16.698381 4.39972 34.309101 0.39858
2004-07-05 06:46:08 51°12.787 2°49.874 16.701012 4.399825 34.309392 0.432289
2004-07-05 06:46:13 51°12.777 2°49.846 16.701012 4.399825 34.309392 0.432289
2004-07-05 06:46:19 51°12.765 2°49.813 16.697278 4.399614 34.305661 0.432289
2004-07-05 06:46:24 51°12.754 2°49.786 16.699739 4.39972 34.307212 0.499708
2004-07-05 06:46:29 51°12.744 2°49.758 16.703091 4.400142 34.311523 0.432289
2004-07-05 06:46:33 51°12.736 2°49.737 16.7036 4.400247 34.312444 0.432289
2004-07-05 06:46:39 51°12.723 2°49.704 16.702709 4.399509 34.306001 0.499708
2004-07-05 06:46:44 51°12.713 2°49.677 16.702709 4.399509 34.306001 0.499708
2004-07-05 06:46:48 51°12.705 2°49.655 16.703133 4.399931 34.310942 0.432289
2004-07-05 06:46:50 51°12.701 2°49.644 16.703006 4.400247 34.312444 0.432289
2004-07-05 06:46:59 51°12.683 2°49.594 16.701733 4.400142 34.310893 0.432289
2004-07-05 06:47:04 51°12.673 2°49.567 16.703218 4.400036 34.309343 0.39858
2004-07-05 06:47:09 51°12.663 2°49.539 16.699442 4.400352 34.311474 0.39858
2004-07-05 06:47:13 51°12.656 2°49.517 16.699442 4.400352 34.311474 0.39858
2004-07-05 06:47:19 51°12.643 2°49.484 16.701224 4.399931 34.307163 0.39858
2004-07-05 06:47:24 51°12.633 2°49.456 16.701648 4.400774 34.314526 0.39858
2004-07-05 06:47:29 51°12.623 2°49.429 16.700418 4.400669 34.314236 0.364871
2004-07-05 06:47:33 51°12.615 2°49.407 16.701521 4.400774 34.313266 0.364871
2004-07-05 06:47:38 51°12.605 2°49.38 16.703473 4.40088 34.316077 0.331161
2004-07-05 06:47:44 51°12.592 2°49.347 16.703473 4.40088 34.316077 0.331161
2004-07-05 06:47:49 51°12.582 2°49.319 16.701733 4.400985 34.316367 0.364871
2004-07-05 06:47:53 51°12.575 2°49.297 16.704406 4.400563 34.313315 0.39858
2004-07-05 06:47:59 51°12.563 2°49.264 16.704576 4.400774 34.315156 0.331161
2004-07-05 06:48:04 51°12.553 2°49.236 16.703303 4.40088 34.316077 0.364871
2004-07-05 06:48:07 51°12.547 2°49.219 16.704194 4.400774 34.314526 0.364871
2004-07-05 06:48:13 51°12.535 2°49.186 16.704194 4.400774 34.314526 0.364871
2004-07-05 06:48:19 51°12.523 2°49.153 16.706188 4.400985 34.316367 0.364871
2004-07-05 06:48:23 51°12.515 2°49.131 16.703982 4.401196 34.317578 0.331161
2004-07-05 06:48:29 51°12.503 2°49.098 16.70657 4.401302 34.318498 0.364871
2004-07-05 06:48:33 51°12.495 2°49.076 16.705679 4.401196 34.317578 0.331161
2004-07-05 06:48:39 51°12.483 2°49.043 16.706188 4.401091 34.316658 0.331161
2004-07-05 06:48:44 51°12.473 2°49.016 16.706188 4.401091 34.316658 0.331161
2004-07-05 06:48:48 51°12.465 2°48.994 16.706358 4.401091 34.316028 0.297452
2004-07-05 06:48:53 51°12.455 2°48.966 16.708819 4.401091 34.315398 0.331161
2004-07-05 06:48:59 51°12.443 2°48.933 16.710516 4.401302 34.317238 0.331161
2004-07-05 06:49:04 51°12.433 2°48.906 16.711576 4.400141 34.307115 0.297452
2004-07-05 06:49:08 51°12.425 2°48.884 16.711576 4.400141 34.307115 0.297452
2004-07-05 06:49:12 51°12.417 2°48.861 16.710007 4.399509 34.300963 0.331161
2004-07-05 06:49:18 51°12.405 2°48.828 16.709201 4.401829 34.32121 0.297452
2004-07-05 06:49:23 51°12.395 2°48.801 16.710813 4.401513 34.317819 0.297452
2004-07-05 06:49:29 51°12.383 2°48.768 16.710304 4.39993 34.303385 0.331161
2004-07-05 06:49:34 51°12.373 2°48.741 16.713952 4.401618 34.31622 0.297452
2004-07-05 06:49:39 51°12.363 2°48.713 16.715649 4.401513 34.31593 0.297452
2004-07-05 06:49:43 51°12.354 2°48.692 16.715649 4.401513 34.31593 0.297452
2004-07-05 06:49:47 51°12.346 2°48.669 16.715904 4.401724 34.3184 0.263742
2004-07-05 06:49:53 51°12.334 2°48.637 16.717134 4.401407 34.315009 0.263742
2004-07-05 06:49:59 51°12.322 2°48.603 16.715946 4.401723 34.31777 0.297452
2004-07-05 06:50:03 51°12.314 2°48.582 16.715819 4.401934 34.318351 0.263742
2004-07-05 06:50:08 51°12.304 2°48.554 16.716837 4.401618 34.31559 0.297452
2004-07-05 06:50:13 51°12.294 2°48.526 16.716837 4.401618 34.31559 0.297452
2004-07-05 06:50:18 51°12.284 2°48.498 16.718407 4.401934 34.317092 0.230033
2004-07-05 06:50:24 51°12.272 2°48.465 16.717304 4.40204 34.316123 0.263742
2004-07-05 06:50:28 51°12.264 2°48.443 16.717685 4.402356 34.319513 0.263742
2004-07-05 06:50:33 51°12.254 2°48.416 16.717516 4.402462 34.319174 0.230033
2004-07-05 06:50:39 51°12.242 2°48.383 16.718491 4.402356 34.318253 0.263742
2004-07-05 06:50:44 51°12.231 2°48.356 16.718491 4.402356 34.318253 0.263742
2004-07-05 06:50:49 51°12.221 2°48.329 16.718788 4.402462 34.317914 0.230033
2004-07-05 06:50:53 51°12.213 2°48.307 16.719764 4.402462 34.319174 0.263742
2004-07-05 06:50:59 51°12.201 2°48.274 16.720188 4.402462 34.318544 0.297452
2004-07-05 06:51:04 51°12.191 2°48.246 16.722649 4.402356 34.317624 0.230033
2004-07-05 06:51:08 51°12.183 2°48.224 16.723539 4.402356 34.316994 0.263742
2004-07-05 06:51:13 51°12.173 2°48.197 16.723539 4.402356 34.316994 0.263742
2004-07-05 06:51:19 51°12.161 2°48.164 16.723243 4.402251 34.315444 0.230033
2004-07-05 06:51:23 51°12.153 2°48.141 16.722437 4.402567 34.318205 0.196324
2004-07-05 06:51:29 51°12.141 2°48.108 16.723836 4.402462 34.316655 0.263742
2004-07-05 06:51:34 51°12.132 2°48.08 16.725618 4.402356 34.315735 0.263742
2004-07-05 06:51:36 51°12.128 2°48.069 16.724939 4.402462 34.315395 0.196324
2004-07-05 06:51:43 51°12.114 2°48.03 16.724939 4.402462 34.315395 0.196324
2004-07-05 06:51:49 51°12.102 2°47.997 16.724303 4.402567 34.315686 0.230033
2004-07-05 06:51:53 51°12.094 2°47.974 16.722733 4.402567 34.315056 0.196324
2004-07-05 06:51:58 51°12.084 2°47.947 16.727187 4.402462 34.313507 0.263742
2004-07-05 06:52:04 51°12.072 2°47.914 16.726509 4.402462 34.312877 0.230033
2004-07-05 06:52:08 51°12.064 2°47.892 16.727569 4.402778 34.315008 0.230033
2004-07-05 06:52:12 51°12.057 2°47.87 16.727569 4.402778 34.315008 0.230033
2004-07-05 06:52:19 51°12.043 2°47.83 16.728545 4.403094 34.317768 0.230033
2004-07-05 06:52:23 51°12.036 2°47.808 16.728375 4.403305 34.320237 0.263742
2004-07-05 06:52:29 51°12.026 2°47.773 16.727654 4.402989 34.317477 0.230033
2004-07-05 06:52:32 51°12.021 2°47.756 16.726127 4.4032 34.318688 0.196324
2004-07-05 06:52:38 51°12.01 2°47.722 16.727569 4.4032 34.316799 0.263742
2004-07-05 06:52:44 51°12 2°47.687 16.727569 4.4032 34.316799 0.263742
2004-07-05 06:52:49 51°11.991 2°47.658 16.72689 4.403305 34.317719 0.230033
2004-07-05 06:52:53 51°11.985 2°47.635 16.72846 4.366918 33.999932 0.230033
2004-07-05 06:52:59 51°11.974 2°47.601 16.728969 4.402251 34.30789 0.196324
2004-07-05 06:53:04 51°11.965 2°47.573 16.725575 4.401723 34.30392 0.263742
2004-07-05 06:53:08 51°11.958 2°47.55 16.726509 4.403305 34.317719 0.230033
2004-07-05 06:53:13 51°11.949 2°47.521 16.726509 4.403305 34.317719 0.230033
2004-07-05 06:53:18 51°11.94 2°47.493 16.726424 4.4032 34.316799 0.230033
2004-07-05 06:53:23 51°11.931 2°47.464 16.727357 4.403094 34.315879 0.230033
2004-07-05 06:53:29 51°11.921 2°47.43 16.72706 4.401618 34.303 0.263742
2004-07-05 06:53:33 51°11.913 2°47.407 16.726 4.402989 34.315589 0.263742
2004-07-05 06:53:39 51°11.903 2°47.373 16.729054 4.403305 34.31709 0.230033
2004-07-05 06:53:44 51°11.894 2°47.344 16.729054 4.403305 34.31709 0.230033
2004-07-05 06:53:48 51°11.887 2°47.322 16.728672 4.403411 34.319269 0.263742
2004-07-05 06:53:53 51°11.878 2°47.293 16.729732 4.403411 34.319269 0.263742
2004-07-05 06:53:59 51°11.867 2°47.259 16.728545 4.403833 34.322949 0.230033
2004-07-05 06:54:04 51°11.859 2°47.23 16.729563 4.4032 34.317429 0.230033
2004-07-05 06:54:08 51°11.851 2°47.208 16.727654 4.403094 34.316509 0.263742
2004-07-05 06:54:13 51°11.843 2°47.179 16.727654 4.403094 34.316509 0.263742
2004-07-05 06:54:19 51°11.832 2°47.145 16.729944 4.402778 34.31249 0.230033
2004-07-05 06:54:24 51°11.823 2°47.116 16.728163 4.4032 34.31617 0.263742
2004-07-05 06:54:29 51°11.815 2°47.088 16.730072 4.403305 34.315831 0.230033
2004-07-05 06:54:34 51°11.806 2°47.059 16.728163 4.403411 34.31738 0.230033
2004-07-05 06:54:39 51°11.797 2°47.031 16.729266 4.403411 34.318009 0.230033
2004-07-05 06:54:43 51°11.79 2°47.008 16.729266 4.403411 34.318009 0.230033
2004-07-05 06:54:49 51°11.779 2°46.974 16.729944 4.403622 34.31922 0.196324
2004-07-05 06:54:53 51°11.772 2°46.951 16.729435 4.403305 34.31709 0.263742
2004-07-05 06:54:59 51°11.761 2°46.917 16.729138 4.4032 34.31617 0.230033
2004-07-05 06:55:04 51°11.753 2°46.888 16.727484 4.403411 34.318009 0.263742
2004-07-05 06:55:08 51°11.745 2°46.865 16.729775 4.39877 34.276906 0.263742
2004-07-05 06:55:13 51°11.737 2°46.837 16.729775 4.39877 34.276906 0.263742
2004-07-05 06:55:19 51°11.726 2°46.803 16.72829 4.392336 34.220179 0.230033
2004-07-05 06:55:23 51°11.719 2°46.779 16.728672 4.400669 34.293462 0.297452
2004-07-05 06:55:29 51°11.709 2°46.745 16.728757 4.402251 34.30789 0.230033
2004-07-05 06:55:33 51°11.702 2°46.722 16.729478 4.40204 34.307309 0.297452
2004-07-05 06:55:39 51°11.691 2°46.688 16.727866 4.400669 34.293462 0.230033
2004-07-05 06:55:43 51°11.685 2°46.665 16.727866 4.400669 34.293462 0.230033
2004-07-05 06:55:49 51°11.674 2°46.63 16.729478 4.400247 34.291041 0.297452
2004-07-05 06:55:54 51°11.665 2°46.602 16.727951 4.400985 34.296851 0.230033
2004-07-05 06:55:59 51°11.656 2°46.573 16.730072 4.40204 34.305421 0.263742
2004-07-05 06:56:04 51°11.648 2°46.545 16.729266 4.40204 34.30605 0.263742
2004-07-05 06:56:08 51°11.64 2°46.522 16.728842 4.401301 34.299611 0.230033
2004-07-05 06:56:10 51°11.637 2°46.51 16.728842 4.401301 34.299611 0.230033
2004-07-05 06:56:18 51°11.623 2°46.464 16.729138 4.401829 34.30484 0.263742
2004-07-05 06:56:23 51°11.614 2°46.436 16.729181 4.401934 34.30576 0.263742
2004-07-05 06:56:29 51°11.604 2°46.401 16.729647 4.402251 34.307261 0.263742
2004-07-05 06:56:33 51°11.597 2°46.378 16.729054 4.40109 34.297142 0.230033
2004-07-05 06:56:39 51°11.587 2°46.343 16.729054 4.40109 34.297142 0.230033
2004-07-05 06:56:41 51°11.583 2°46.332 16.728969 4.40204 34.305421 0.263742
2004-07-05 06:56:48 51°11.571 2°46.292 16.727399 4.403516 34.3183 0.263742
2004-07-05 06:56:51 51°11.566 2°46.274 16.727484 4.401934 34.30513 0.297452
2004-07-05 06:56:59 51°11.552 2°46.229 16.727951 4.403938 34.32198 0.263742
2004-07-05 06:57:03 51°11.545 2°46.206 16.727654 4.401934 34.30513 0.263742
2004-07-05 06:57:09 51°11.534 2°46.172 16.726509 4.403622 34.319849 0.263742
2004-07-05 06:57:13 51°11.527 2°46.149 16.726509 4.403622 34.319849 0.263742
2004-07-05 06:57:19 51°11.516 2°46.115 16.727993 4.403727 34.320769 0.297452
2004-07-05 06:57:24 51°11.508 2°46.086 16.726297 4.400352 34.291961 0.263742
2004-07-05 06:57:28 51°11.501 2°46.063 16.727654 4.402251 34.308519 0.297452
2004-07-05 06:57:33 51°11.492 2°46.035 16.726127 4.403622 34.319849 0.263742
2004-07-05 06:57:39 51°11.481 2°46 16.725024 4.401829 34.30484 0.263742
2004-07-05 06:57:44 51°11.472 2°45.972 16.725024 4.401829 34.30484 0.263742
2004-07-05 06:57:48 51°11.465 2°45.949 16.724048 4.403411 34.318639 0.263742
2004-07-05 06:57:53 51°11.457 2°45.92 16.723836 4.402778 34.313119 0.263742
2004-07-05 06:57:59 51°11.446 2°45.886 16.725024 4.403727 34.322029 0.297452
2004-07-05 06:58:04 51°11.437 2°45.857 16.721249 4.403727 34.322658 0.297452
2004-07-05 06:58:08 51°11.43 2°45.834 16.723752 4.400247 34.292299 0.263742
2004-07-05 06:58:13 51°11.421 2°45.806 16.723752 4.400247 34.292299 0.263742
2004-07-05 06:58:18 51°11.412 2°45.777 16.724303 4.403411 34.320528 0.263742
2004-07-05 06:58:24 51°11.402 2°45.743 16.723539 4.403727 34.323918 0.263742
2004-07-05 06:58:29 51°11.393 2°45.714 16.722818 4.403516 34.322707 0.263742
2004-07-05 06:58:33 51°11.386 2°45.691 16.723709 4.403411 34.323047 0.263742
2004-07-05 06:58:39 51°11.376 2°45.657 16.72303 4.403516 34.323337 0.297452
2004-07-05 06:58:44 51°11.368 2°45.628 16.72303 4.403516 34.323337 0.297452
2004-07-05 06:58:48 51°11.361 2°45.605 16.723243 4.403411 34.322417 0.263742
2004-07-05 06:58:53 51°11.353 2°45.576 16.721546 4.403411 34.321787 0.263742
2004-07-05 06:58:59 51°11.343 2°45.541 16.720867 4.403305 34.321497 0.297452
2004-07-05 06:59:04 51°11.334 2°45.512 16.719297 4.403411 34.322417 0.263742
2004-07-05 06:59:08 51°11.327 2°45.489 16.719382 4.403305 34.322127 0.297452
2004-07-05 06:59:12 51°11.321 2°45.466 16.719382 4.403305 34.322127 0.297452
2004-07-05 06:59:19 51°11.309 2°45.425 16.718704 4.403622 34.323627 0.331161
2004-07-05 06:59:24 51°11.301 2°45.396 16.717431 4.4032 34.321836 0.263742
2004-07-05 06:59:27 51°11.296 2°45.378 16.717134 4.403622 34.324887 0.297452
2004-07-05 06:59:33 51°11.287 2°45.343 16.715819 4.403516 34.325226 0.297452
2004-07-05 06:59:39 51°11.277 2°45.308 16.71671 4.4032 34.323726 0.297452
2004-07-05 06:59:44 51°11.27 2°45.278 16.71671 4.4032 34.323726 0.297452
2004-07-05 06:59:49 51°11.262 2°45.249 16.715861 4.403095 34.322805 0.230033
2004-07-05 06:59:53 51°11.256 2°45.225 16.716201 4.4032 34.323726 0.297452
2004-07-05 06:59:59 51°11.246 2°45.19 16.713273 4.403095 34.323435 0.331161
2004-07-05 07:00:04 51°11.238 2°45.161 16.713273 4.402884 34.322225 0.297452
2004-07-05 07:00:08 51°11.231 2°45.138 16.713273 4.402884 34.322225 0.297452
2004-07-05 07:00:13 51°11.223 2°45.109 16.714334 4.402989 34.324405 0.331161
2004-07-05 07:00:19 51°11.213 2°45.075 16.711492 4.402778 34.322564 0.331161
2004-07-05 07:00:24 51°11.204 2°45.045 16.712849 4.402884 34.323484 0.297452
2004-07-05 07:00:29 51°11.196 2°45.017 16.712595 4.402884 34.324744 0.297452
2004-07-05 07:00:34 51°11.188 2°44.987 16.713273 4.402673 34.323533 0.331161
2004-07-05 07:00:39 51°11.18 2°44.958 16.71357 4.402778 34.325084 0.297452
2004-07-05 07:00:43 51°11.174 2°44.935 16.71357 4.402778 34.325084 0.297452
2004-07-05 07:00:48 51°11.166 2°44.905 16.714928 4.402673 34.324793 0.331161
2004-07-05 07:00:53 51°11.158 2°44.876 16.71357 4.402567 34.324503 0.331161
2004-07-05 07:00:59 51°11.148 2°44.841 16.712298 4.402567 34.324503 0.331161
2004-07-05 07:01:04 51°11.14 2°44.812 16.711279 4.402567 34.323873 0.331161
2004-07-05 07:01:07 51°11.135 2°44.794 16.713443 4.402356 34.322032 0.331161
2004-07-05 07:01:13 51°11.126 2°44.759 16.713443 4.402356 34.322032 0.331161
2004-07-05 07:01:19 51°11.116 2°44.724 16.711704 4.402567 34.323873 0.364871
2004-07-05 07:01:23 51°11.11 2°44.701 16.708946 4.402462 34.322323 0.331161
2004-07-05 07:01:29 51°11.1 2°44.665 16.710982 4.402356 34.321403 0.331161
2004-07-05 07:01:31 51°11.097 2°44.654 16.710601 4.402462 34.322953 0.364871
2004-07-05 07:01:39 51°11.084 2°44.607 16.709413 4.402356 34.322662 0.364871
2004-07-05 07:01:44 51°11.076 2°44.578 16.709413 4.402356 34.322662 0.364871
2004-07-05 07:01:49 51°11.068 2°44.548 16.70674 4.402145 34.321452 0.331161
2004-07-05 07:01:53 51°11.062 2°44.525 16.70657 4.40204 34.321161 0.364871
2004-07-05 07:01:57 51°11.056 2°44.501 16.707079 4.402145 34.322082 0.364871
2004-07-05 07:02:04 51°11.044 2°44.46 16.707546 4.401934 34.320241 0.364871
2004-07-05 07:02:08 51°11.038 2°44.437 16.704491 4.401829 34.31995 0.364871
2004-07-05 07:02:12 51°11.031 2°44.414 16.704491 4.401829 34.31995 0.364871
2004-07-05 07:02:19 51°11.02 2°44.373 16.703982 4.401513 34.318449 0.364871
2004-07-05 07:02:24 51°11.012 2°44.343 16.704279 4.401407 34.318159 0.364871
2004-07-05 07:02:28 51°11.006 2°44.32 16.703388 4.401407 34.318159 0.39858
2004-07-05 07:02:33 51°10.998 2°44.291 16.703685 4.40088 34.315447 0.39858
2004-07-05 07:02:39 51°10.989 2°44.255 16.702115 4.400985 34.315107 0.39858
2004-07-05 07:02:43 51°10.982 2°44.232 16.702115 4.400985 34.315107 0.39858
2004-07-05 07:02:49 51°10.973 2°44.196 16.702539 4.401196 34.317578 0.39858
2004-07-05 07:02:52 51°10.968 2°44.179 16.700121 4.401196 34.317578 0.432289
2004-07-05 07:02:59 51°10.957 2°44.138 16.699739 4.397399 34.285704 0.364871
2004-07-05 07:03:04 51°10.949 2°44.109 16.698551 4.394446 34.260566 0.465999
2004-07-05 07:03:08 51°10.943 2°44.085 16.69698 4.398981 34.301398 0.432289
2004-07-05 07:03:13 51°10.935 2°44.056 16.69698 4.398981 34.301398 0.432289
2004-07-05 07:03:19 51°10.925 2°44.021 16.697575 4.397927 34.292824 0.499708
2004-07-05 07:03:24 51°10.918 2°43.991 16.696683 4.394446 34.262453 0.432289
2004-07-05 07:03:29 51°10.91 2°43.962 16.695792 4.396239 34.278728 0.432289
2004-07-05 07:03:33 51°10.904 2°43.939 16.694307 4.39413 34.260321 0.465999
2004-07-05 07:03:39 51°10.894 2°43.904 16.695326 4.39413 34.26095 0.465999
2004-07-05 07:03:43 51°10.888 2°43.88 16.695326 4.39413 34.26095 0.465999
2004-07-05 07:03:48 51°10.88 2°43.851 16.694434 4.395817 34.277563 0.533418
2004-07-05 07:03:53 51°10.871 2°43.822 16.694307 4.396134 34.280325 0.499708
2004-07-05 07:03:59 51°10.861 2°43.787 16.697362 4.393708 34.257898 0.533418
2004-07-05 07:04:04 51°10.853 2°43.758 16.69698 4.399298 34.307939 0.567127
2004-07-05 07:04:08 51°10.846 2°43.735 16.69698 4.399298 34.307939 0.567127
2004-07-05 07:04:13 51°10.838 2°43.705 16.696471 4.399192 34.308908 0.465999
2004-07-05 07:04:19 51°10.829 2°43.67 16.697999 4.399192 34.309538 0.567127
2004-07-05 07:04:24 51°10.821 2°43.64 16.698466 4.398876 34.305516 0.701965
2004-07-05 07:04:28 51°10.815 2°43.617 16.699442 4.399298 34.309829 0.567127
2004-07-05 07:04:32 51°10.809 2°43.593 16.701054 4.399087 34.307357 0.668255
2004-07-05 07:04:39 51°10.798 2°43.552 16.702412 4.399087 34.307357 0.600836
2004-07-05 07:04:44 51°10.791 2°43.523 16.702412 4.399087 34.307357 0.600836
2004-07-05 07:04:48 51°10.785 2°43.499 16.703685 4.398665 34.303675 0.634546
2004-07-05 07:04:53 51°10.777 2°43.47 16.705467 4.398665 34.301786 0.701965
2004-07-05 07:04:59 51°10.767 2°43.435 16.708225 4.39856 34.300236 0.769383
2004-07-05 07:05:04 51°10.759 2°43.406 16.711576 4.398665 34.300526 0.769383
2004-07-05 07:05:09 51°10.751 2°43.377 16.71217 4.39877 34.300817 0.836802
2004-07-05 07:05:13 51°10.744 2°43.353 16.71217 4.39877 34.300817 0.836802
2004-07-05 07:05:19 51°10.735 2°43.318 16.714037 4.399192 34.303239 0.836802
2004-07-05 07:05:24 51°10.727 2°43.288 16.715649 4.398981 34.300769 0.904221
2004-07-05 07:05:29 51°10.72 2°43.259 16.718788 4.398876 34.29733 0.870512
2004-07-05 07:05:33 51°10.714 2°43.235 16.7204 4.399087 34.298541 1.005349
2004-07-05 07:05:39 51°10.705 2°43.2 16.725194 4.399509 34.300333 0.97164
2004-07-05 07:05:43 51°10.699 2°43.176 16.725194 4.399509 34.300333 0.97164
2004-07-05 07:05:49 51°10.689 2°43.141 16.725236 4.39645 34.27176 1.005349
2004-07-05 07:05:53 51°10.683 2°43.118 16.728248 4.396555 34.270793 1.039059
2004-07-05 07:05:57 51°10.677 2°43.094 16.730623 4.397715 34.27714 1.039059
2004-07-05 07:06:04 51°10.666 2°43.053 16.73321 4.396555 34.264505 1.039059
2004-07-05 07:06:09 51°10.658 2°43.024 16.735458 4.39645 34.262957 1.039059
2004-07-05 07:06:13 51°10.652 2°43.001 16.735458 4.39645 34.262957 1.039059
2004-07-05 07:06:19 51°10.642 2°42.966 16.738639 4.396766 34.26383 1.005349
2004-07-05 07:06:24 51°10.634 2°42.936 16.74165 4.398137 34.262588 1.106477
2004-07-05 07:06:28 51°10.628 2°42.913 16.745042 4.399086 34.266466 1.039059
2004-07-05 07:06:33 51°10.62 2°42.884 16.748392 4.399825 34.274787 1.072768
2004-07-05 07:06:39 51°10.611 2°42.849 16.752166 4.399297 34.268933 1.072768
2004-07-05 07:06:44 51°10.603 2°42.819 16.752166 4.399297 34.268933 1.072768
2004-07-05 07:06:48 51°10.597 2°42.796 16.755685 4.398137 34.258191 1.072768
2004-07-05 07:06:52 51°10.591 2°42.772 16.759077 4.400563 34.276196 1.072768
2004-07-05 07:06:59 51°10.58 2°42.731 16.761917 4.400035 34.269714 1.140187
2004-07-05 07:07:03 51°10.574 2°42.707 16.765563 4.399297 34.260766 1.106477
2004-07-05 07:07:09 51°10.565 2°42.672 16.767725 4.400141 34.266864 1.140187
2004-07-05 07:07:11 51°10.562 2°42.66 16.767725 4.400141 34.266864 1.140187
2004-07-05 07:07:19 51°10.55 2°42.613 16.769081 4.399402 34.256662 1.140187
2004-07-05 07:07:23 51°10.543 2°42.59 16.771286 4.401512 34.270648 1.106477
2004-07-05 07:07:29 51°10.534 2°42.555 16.773236 4.401406 34.268473 1.173896
2004-07-05 07:07:33 51°10.528 2°42.531 16.776881 4.400879 34.261367 1.241315
2004-07-05 07:07:39 51°10.519 2°42.496 16.777474 4.400668 34.257019 1.140187
2004-07-05 07:07:43 51°10.513 2°42.472 16.777474 4.400668 34.257019 1.140187
2004-07-05 07:07:48 51°10.506 2°42.442 16.779297 4.404254 34.285749 1.173896
2004-07-05 07:07:53 51°10.498 2°42.413 16.780907 4.401933 34.263651 1.173896
2004-07-05 07:07:57 51°10.492 2°42.389 16.782518 4.401828 34.261477 1.173896
2004-07-05 07:08:04 51°10.482 2°42.348 16.784213 4.401512 34.256211 1.173896
2004-07-05 07:08:09 51°10.474 2°42.318 16.78612 4.403094 34.268736 1.173896
2004-07-05 07:08:13 51°10.467 2°42.295 16.78612 4.403094 34.268736 1.173896
2004-07-05 07:08:19 51°10.458 2°42.26 16.786714 4.405098 34.283052 1.173896
2004-07-05 07:08:24 51°10.45 2°42.231 16.786968 4.405414 34.284553 1.173896
2004-07-05 07:08:28 51°10.444 2°42.207 16.788282 4.405941 34.287262 1.207606
2004-07-05 07:08:33 51°10.436 2°42.177 16.789807 4.405519 34.28296 1.207606
2004-07-05 07:08:39 51°10.427 2°42.142 16.790019 4.406047 34.286925 1.275024
2004-07-05 07:08:43 51°10.421 2°42.118 16.790019 4.406047 34.286925 1.275024
2004-07-05 07:08:48 51°10.414 2°42.089 16.790316 4.405625 34.281368 1.207606
2004-07-05 07:08:53 51°10.407 2°42.059 16.790104 4.406152 34.285333 1.275024
2004-07-05 07:08:58 51°10.399 2°42.029 16.789807 4.406469 34.286833 1.207606
2004-07-05 07:09:04 51°10.39 2°41.994 16.789553 4.406574 34.286496 1.275024
2004-07-05 07:09:08 51°10.383 2°41.971 16.790146 4.406468 34.284322 1.241315
2004-07-05 07:09:13 51°10.375 2°41.942 16.790146 4.406468 34.284322 1.241315
2004-07-05 07:09:19 51°10.365 2°41.907 16.788663 4.406679 34.284904 1.173896
2004-07-05 07:09:23 51°10.358 2°41.884 16.789553 4.40689 34.287368 1.173896
2004-07-05 07:09:28 51°10.35 2°41.855 16.789722 4.406785 34.285822 1.241315
2004-07-05 07:09:32 51°10.343 2°41.832 16.788748 4.407207 34.290124 1.376153
2004-07-05 07:09:39 51°10.331 2°41.792 16.787688 4.407101 34.289205 1.275024
2004-07-05 07:09:44 51°10.323 2°41.763 16.787688 4.407101 34.289205 1.275024
2004-07-05 07:09:49 51°10.315 2°41.734 16.787688 4.406468 34.283695 1.308734
2004-07-05 07:09:53 51°10.309 2°41.71 16.788875 4.406468 34.28495 1.376153
2004-07-05 07:09:59 51°10.3 2°41.675 16.787858 4.406679 34.286787 1.275024
2004-07-05 07:10:04 51°10.292 2°41.645 16.787095 4.406996 34.288915 1.376153
2004-07-05 07:10:09 51°10.285 2°41.616 16.78523 4.40689 34.287996 1.376153
2004-07-05 07:10:13 51°10.279 2°41.592 16.78523 4.40689 34.287996 1.376153
2004-07-05 07:10:19 51°10.27 2°41.557 16.785824 4.407418 34.292588 1.275024
2004-07-05 07:10:24 51°10.263 2°41.527 16.784001 4.406785 34.287078 1.342443
2004-07-05 07:10:27 51°10.258 2°41.51 16.783747 4.406679 34.286787 1.443571
2004-07-05 07:10:34 51°10.248 2°41.468 16.783832 4.406785 34.285822 1.443571
2004-07-05 07:10:39 51°10.24 2°41.439 16.783959 4.406363 34.284032 1.275024
2004-07-05 07:10:44 51°10.232 2°41.41 16.783959 4.406363 34.284032 1.275024
2004-07-05 07:10:49 51°10.224 2°41.381 16.782857 4.406679 34.288042 1.443571
2004-07-05 07:10:53 51°10.218 2°41.357 16.783238 4.40689 34.290507 1.51099
2004-07-05 07:10:59 51°10.209 2°41.322 16.78345 4.406785 34.291472 1.51099
2004-07-05 07:11:03 51°10.203 2°41.298 16.783535 4.406258 34.286251 1.612118
2004-07-05 07:11:08 51°10.196 2°41.269 16.785569 4.406574 34.289007 1.578409
2004-07-05 07:11:13 51°10.188 2°41.239 16.785569 4.406574 34.289007 1.578409
2004-07-05 07:11:19 51°10.179 2°41.203 16.785315 4.406785 34.290216 1.578409
2004-07-05 07:11:24 51°10.172 2°41.174 16.783916 4.406469 34.289344 1.612118
2004-07-05 07:11:29 51°10.164 2°41.144 16.784171 4.406785 34.291472 1.578409
2004-07-05 07:11:33 51°10.158 2°41.121 16.784595 4.406785 34.290844 1.612118
2004-07-05 07:11:39 51°10.149 2°41.085 16.784849 4.406996 34.292053 1.578409
2004-07-05 07:11:44 51°10.141 2°41.056 16.784849 4.406996 34.292053 1.578409
2004-07-05 07:11:49 51°10.134 2°41.026 16.785696 4.406574 34.289007 1.645828
2004-07-05 07:11:53 51°10.128 2°41.002 16.786332 4.406574 34.287752 1.679537
2004-07-05 07:11:59 51°10.119 2°40.967 16.78718 4.406469 34.286833 1.645828
2004-07-05 07:12:04 51°10.112 2°40.937 16.787476 4.40689 34.290507 1.612118
2004-07-05 07:12:08 51°10.105 2°40.914 16.787985 4.406258 34.284996 1.645828
2004-07-05 07:12:21 51°10.085 2°40.838 16.787095 4.406996 34.291426 1.679537
2004-07-05 07:12:25 51°10.078 2°40.815 16.788663 4.406785 34.288961 1.645828
2004-07-05 07:12:32 51°10.066 2°40.774 16.788663 4.406785 34.288961 1.645828
2004-07-05 07:12:37 51°10.058 2°40.745 16.789553 4.40689 34.288624 1.679537
2004-07-05 07:12:42 51°10.05 2°40.716 16.790951 4.406574 34.284613 1.679537
2004-07-05 07:12:47 51°10.042 2°40.687 16.791417 4.40689 34.289252 1.713247
2004-07-05 07:12:52 51°10.035 2°40.657 16.790909 4.406679 34.286159 1.612118
2004-07-05 07:12:57 51°10.027 2°40.628 16.791502 4.406785 34.287078 1.746956
2004-07-05 07:13:01 51°10.021 2°40.604 16.791502 4.406785 34.287078 1.746956
2004-07-05 07:13:07 51°10.013 2°40.568 16.791375 4.40689 34.287368 1.746956
2004-07-05 07:13:12 51°10.006 2°40.539 16.792392 4.406996 34.287032 1.780665
2004-07-05 07:13:17 51°9.999 2°40.509 16.792985 4.406785 34.284567 1.713247
2004-07-05 07:13:21 51°9.993 2°40.485 16.793197 4.407312 34.288531 1.780665
2004-07-05 07:13:27 51°9.984 2°40.449 16.792901 4.40689 34.284858 1.780665
2004-07-05 07:13:32 51°9.976 2°40.42 16.792901 4.40689 34.284858 1.780665
2004-07-05 07:13:35 51°9.971 2°40.402 16.794765 4.407101 34.286695 1.746956
2004-07-05 07:13:41 51°9.961 2°40.368 16.796206 4.407418 34.288195 1.746956
2004-07-05 07:13:47 51°9.952 2°40.333 16.796884 4.407207 34.287613 1.814375
2004-07-05 07:13:51 51°9.945 2°40.31 16.797392 4.407207 34.285103 1.915503
2004-07-05 07:13:56 51°9.937 2°40.28 16.79807 4.407523 34.288485 1.814375
2004-07-05 07:14:01 51°9.93 2°40.251 16.79807 4.407523 34.288485 1.814375
2004-07-05 07:14:05 51°9.924 2°40.227 16.799341 4.407629 34.289404 1.881794
2004-07-05 07:14:11 51°9.917 2°40.19 16.799935 4.407418 34.286312 1.814375
2004-07-05 07:14:16 51°9.911 2°40.16 16.798113 4.407629 34.288148 1.982922
2004-07-05 07:14:21 51°9.905 2°40.13 16.797138 4.407629 34.286893 1.915503
2004-07-05 07:14:27 51°9.898 2°40.093 16.798791 4.407418 34.285057 1.915503
2004-07-05 07:14:32 51°9.892 2°40.062 16.798791 4.407418 34.285057 1.915503
2004-07-05 07:14:37 51°9.886 2°40.032 16.796291 4.407839 34.288102 1.982922
2004-07-05 07:14:41 51°9.881 2°40.007 16.795952 4.407312 34.281629 1.814375
2004-07-05 07:14:47 51°9.874 2°39.971 16.79396 4.407629 34.285011 2.08405
2004-07-05 07:14:51 51°9.869 2°39.947 16.793451 4.408156 34.288975 2.050341
2004-07-05 07:14:56 51°9.862 2°39.917 16.791884 4.407629 34.286266 1.848084
2004-07-05 07:15:01 51°9.855 2°39.887 16.791884 4.407629 34.286266 1.848084
2004-07-05 07:15:07 51°9.848 2°39.85 16.790951 4.407628 34.283756 1.949212
2004-07-05 07:15:12 51°9.842 2°39.82 16.790146 4.407945 34.287766 1.915503
2004-07-05 07:15:16 51°9.837 2°39.795 16.790528 4.407734 34.288439 2.08405
2004-07-05 07:15:21 51°9.831 2°39.765 16.788366 4.407312 34.285394 1.982922
2004-07-05 07:15:27 51°9.824 2°39.728 16.789383 4.40784 34.290613 2.050341
2004-07-05 07:15:31 51°9.82 2°39.703 16.789383 4.40784 34.290613 2.050341
2004-07-05 07:15:36 51°9.814 2°39.672 16.784044 4.407523 34.288485 2.016631
2004-07-05 07:15:41 51°9.809 2°39.642 16.781501 4.407523 34.289741 2.016631
2004-07-05 07:15:47 51°9.802 2°39.605 16.779932 4.407734 34.291577 1.881794
2004-07-05 07:15:52 51°9.795 2°39.575 16.777432 4.407312 34.287276 2.016631
2004-07-05 07:15:56 51°9.79 2°39.55 16.774719 4.40784 34.292496 1.982922
2004-07-05 07:16:02 51°9.783 2°39.514 16.774719 4.40784 34.292496 1.982922
2004-07-05 07:16:07 51°9.776 2°39.484 16.773744 4.407207 34.290124 1.915503
2004-07-05 07:16:12 51°9.769 2°39.454 16.771794 4.407101 34.289833 1.949212
2004-07-05 07:16:17 51°9.763 2°39.423 16.772345 4.40689 34.291135 1.915503
2004-07-05 07:16:21 51°9.758 2°39.399 16.769972 4.40689 34.292391 1.881794
2004-07-05 07:16:27 51°9.75 2°39.362 16.768022 4.40668 34.293693 1.881794
2004-07-05 07:16:32 51°9.744 2°39.332 16.768022 4.40668 34.293693 1.881794
2004-07-05 07:16:35 51°9.741 2°39.313 16.767428 4.40668 34.294321 1.949212
2004-07-05 07:16:41 51°9.733 2°39.277 16.766411 4.406469 34.292484 1.982922
2004-07-05 07:16:47 51°9.725 2°39.24 16.763189 4.40668 34.296833 1.982922
2004-07-05 07:16:51 51°9.72 2°39.216 16.761536 4.406258 34.293158 1.982922
2004-07-05 07:16:56 51°9.714 2°39.185 16.763486 4.405941 34.291658 2.050341
2004-07-05 07:17:01 51°9.708 2°39.155 16.763486 4.405941 34.291658 2.050341
2004-07-05 07:17:07 51°9.7 2°39.118 16.759246 4.405836 34.293251 1.848084
2004-07-05 07:17:12 51°9.694 2°39.087 16.759373 4.406152 34.29538 1.982922
2004-07-05 07:17:17 51°9.687 2°39.057 16.760603 4.405625 34.292042 1.949212
2004-07-05 07:17:21 51°9.683 2°39.032 16.756957 4.405836 34.296392 1.915503
2004-07-05 07:17:27 51°9.676 2°38.995 16.75649 4.405731 34.297358 1.949212
2004-07-05 07:17:32 51°9.67 2°38.964 16.75649 4.405731 34.297358 1.949212
2004-07-05 07:17:36 51°9.665 2°38.94 16.751106 4.405836 34.297649 1.949212
2004-07-05 07:17:41 51°9.659 2°38.909 16.750894 4.405309 34.294311 1.949212
2004-07-05 07:17:47 51°9.652 2°38.872 16.750682 4.405625 34.297696 2.050341
2004-07-05 07:17:52 51°9.646 2°38.842 16.745127 4.405941 34.301709 2.08405
2004-07-05 07:17:57 51°9.639 2°38.811 16.741777 4.405836 34.302676 1.949212
2004-07-05 07:18:01 51°9.634 2°38.786 16.741777 4.405836 34.302676 1.949212
2004-07-05 07:18:07 51°9.626 2°38.75 16.741946 4.405414 34.300256 2.016631
2004-07-05 07:18:12 51°9.62 2°38.72 16.73813 4.405414 34.301513 2.08405
2004-07-05 07:18:17 51°9.613 2°38.689 16.735373 4.404887 34.298175 1.982922
2004-07-05 07:18:21 51°9.608 2°38.666 16.735585 4.403832 34.292754 2.08405
2004-07-05 07:18:27 51°9.601 2°38.634 16.732319 4.403094 34.287576 1.915503
2004-07-05 07:18:31 51°9.594 2°38.616 16.732319 4.403094 34.287576 1.915503
2004-07-05 07:18:36 51°9.584 2°38.598 16.728884 4.402988 34.288542 1.915503
2004-07-05 07:18:41 51°9.573 2°38.583 16.726084 4.404676 34.304508 1.949212
2004-07-05 07:18:47 51°9.561 2°38.569 16.726127 4.40225 34.285878 2.016631
2004-07-05 07:18:52 51°9.55 2°38.561 16.726763 4.404465 34.305814 1.949212
2004-07-05 07:18:57 51°9.54 2°38.556 16.732828 4.402039 34.28781 2.117759
2004-07-05 07:19:01 51°9.532 2°38.554 16.732828 4.402039 34.28781 2.117759
2004-07-05 07:19:07 51°9.521 2°38.553 16.737451 4.403727 34.306295 1.982922
2004-07-05 07:19:12 51°9.512 2°38.555 16.742837 4.403938 34.309393 1.949212
2004-07-05 07:19:17 51°9.504 2°38.559 16.74818 4.403516 34.307601 2.08405
2004-07-05 07:19:21 51°9.498 2°38.564 16.752293 4.402778 34.301793 2.050341
2004-07-05 07:19:27 51°9.49 2°38.572 16.754243 4.403727 34.308812 2.016631
2004-07-05 07:19:32 51°9.485 2°38.58 16.754243 4.403727 34.308812 2.016631
2004-07-05 07:19:36 51°9.481 2°38.588 16.755473 4.403622 34.307892 1.982922
2004-07-05 07:19:41 51°9.478 2°38.598 16.75259 4.404043 34.307167 1.915503
2004-07-05 07:19:47 51°9.475 2°38.611 16.749622 4.404254 34.304604 1.848084
2004-07-05 07:19:52 51°9.474 2°38.623 16.748689 4.404676 34.305766 1.848084
2004-07-05 07:19:57 51°9.474 2°38.635 16.745551 4.404887 34.303832 1.746956
2004-07-05 07:20:00 51°9.474 2°38.643 16.745551 4.404887 34.303832 1.746956
2004-07-05 07:20:07 51°9.475 2°38.661 16.742752 4.404887 34.301317 1.848084
2004-07-05 07:20:12 51°9.476 2°38.676 16.740081 4.405942 34.311138 1.679537
2004-07-05 07:20:16 51°9.476 2°38.689 16.743261 4.405836 34.308962 1.713247
2004-07-05 07:20:21 51°9.478 2°38.705 16.745551 4.405836 34.30959 1.746956
2004-07-05 07:20:27 51°9.479 2°38.726 16.748265 4.405942 34.312396 1.780665
2004-07-05 07:20:32 51°9.481 2°38.744 16.748265 4.405942 34.312396 1.780665
2004-07-05 07:20:36 51°9.483 2°38.759 16.748392 4.404571 34.30296 1.848084
2004-07-05 07:20:41 51°9.486 2°38.777 16.748519 4.404465 34.303298 1.780665
2004-07-05 07:20:47 51°9.491 2°38.801 16.743007 4.404993 34.309782 1.881794
2004-07-05 07:20:52 51°9.496 2°38.82 16.739529 4.40552 34.311863 1.881794
2004-07-05 07:20:57 51°9.501 2°38.841 16.740208 4.404992 34.307266 1.814375
2004-07-05 07:20:59 51°9.503 2°38.849 16.740208 4.404992 34.307266 1.814375
2004-07-05 07:21:05 51°9.509 2°38.874 16.736942 4.404254 34.300202 1.814375
2004-07-05 07:21:12 51°9.515 2°38.905 16.73567 4.404676 34.303251 1.814375
2004-07-05 07:21:15 51°9.517 2°38.918 16.738342 4.40552 34.311863 1.881794
2004-07-05 07:21:21 51°9.521 2°38.945 16.73673 4.404992 34.307895 1.848084
2004-07-05 07:21:27 51°9.524 2°38.973 16.734864 4.404676 34.307024 1.780665
2004-07-05 07:21:32 51°9.527 2°38.996 16.734864 4.404676 34.307024 1.780665
2004-07-05 07:21:36 51°9.53 2°39.015 16.732023 4.404676 34.307652 1.746956
2004-07-05 07:21:41 51°9.533 2°39.038 16.730708 4.404887 34.310749 1.848084
2004-07-05 07:21:47 51°9.536 2°39.066 16.726084 4.404254 34.307119 1.848084
2004-07-05 07:21:52 51°9.54 2°39.09 16.727102 4.404043 34.303394 1.746956
2004-07-05 07:21:56 51°9.542 2°39.109 16.727951 4.404465 34.308329 1.881794
2004-07-05 07:22:01 51°9.546 2°39.132 16.727951 4.404465 34.308329 1.881794
2004-07-05 07:22:07 51°9.55 2°39.161 16.72706 4.403621 34.302231 1.814375
2004-07-05 07:22:12 51°9.554 2°39.184 16.728375 4.403727 34.304408 1.814375
2004-07-05 07:22:16 51°9.558 2°39.203 16.723836 4.403832 34.306586 1.915503
2004-07-05 07:22:21 51°9.562 2°39.226 16.727102 4.403727 34.308812 2.08405
2004-07-05 07:22:27 51°9.567 2°39.255 16.726509 4.403727 34.308183 2.151469
2004-07-05 07:22:32 51°9.571 2°39.278 16.726509 4.403727 34.308183 2.151469
2004-07-05 07:22:37 51°9.576 2°39.302 16.728884 4.403516 34.307601 2.016631
2004-07-05 07:22:41 51°9.579 2°39.321 16.729478 4.403411 34.306682 2.050341
2004-07-05 07:22:47 51°9.584 2°39.348 16.73567 4.402672 34.302131 2.050341
2004-07-05 07:22:52 51°9.588 2°39.372 16.733974 4.402989 34.30489 2.050341
2004-07-05 07:22:57 51°9.594 2°39.395 16.732192 4.402989 34.303632 2.08405
2004-07-05 07:23:01 51°9.598 2°39.413 16.732192 4.402989 34.303632 2.08405
2004-07-05 07:23:07 51°9.606 2°39.439 16.733719 4.403411 34.305424 2.016631
2004-07-05 07:23:12 51°9.613 2°39.461 16.736179 4.4032 34.302955 2.117759
2004-07-05 07:23:16 51°9.619 2°39.478 16.736857 4.403516 34.305085 2.117759
2004-07-05 07:23:21 51°9.626 2°39.5 16.741098 4.403411 34.304166 2.185178
2004-07-05 07:23:33 51°9.643 2°39.553 16.744576 4.401723 34.288824 1.949212
2004-07-05 07:23:39 51°9.648 2°39.581 16.746823 4.403516 34.302569 2.050341
2004-07-05 07:23:43 51°9.652 2°39.6 16.746823 4.403516 34.302569 2.050341
2004-07-05 07:23:48 51°9.655 2°39.623 16.745509 4.403621 34.30286 2.117759
2004-07-05 07:23:53 51°9.658 2°39.646 16.748816 4.402989 34.296085 2.08405
2004-07-05 07:23:59 51°9.661 2°39.674 16.746993 4.40341 34.297248 2.117759
2004-07-05 07:24:04 51°9.663 2°39.697 16.749706 4.404149 34.301798 1.949212
2004-07-05 07:24:08 51°9.664 2°39.715 16.748986 4.403727 34.296863 2.050341
2004-07-05 07:24:14 51°9.665 2°39.742 16.748986 4.403727 34.296863 2.050341
2004-07-05 07:24:19 51°9.666 2°39.764 16.746908 4.403832 34.296525 1.949212
2004-07-05 07:24:24 51°9.667 2°39.786 16.746993 4.404571 34.301074 2.050341
2004-07-05 07:24:28 51°9.668 2°39.804 16.746993 4.404149 34.296769 2.08405
2004-07-05 07:24:33 51°9.669 2°39.826 16.745805 4.404043 34.295221 1.982922
2004-07-05 07:24:39 51°9.671 2°39.852 16.744618 4.404465 34.299526 2.151469
2004-07-05 07:24:44 51°9.673 2°39.873 16.744618 4.404465 34.299526 2.151469
2004-07-05 07:24:48 51°9.675 2°39.891 16.743855 4.40436 34.298607 2.050341
2004-07-05 07:24:54 51°9.679 2°39.915 16.745424 4.404254 34.298945 2.151469
2004-07-05 07:24:57 51°9.681 2°39.928 16.744745 4.404254 34.298316 2.151469
2004-07-05 07:25:04 51°9.686 2°39.957 16.745381 4.403938 34.295559 2.218888
2004-07-05 07:25:09 51°9.69 2°39.977 16.745593 4.404254 34.298945 2.185178
2004-07-05 07:25:13 51°9.694 2°39.993 16.745593 4.404254 34.298945 2.185178
2004-07-05 07:25:19 51°9.699 2°40.017 16.747502 4.403832 34.297154 2.218888
2004-07-05 07:25:24 51°9.705 2°40.038 16.748646 4.403305 34.292557 2.286306
2004-07-05 07:25:29 51°9.709 2°40.058 16.750258 4.403621 34.294058 2.218888
2004-07-05 07:25:33 51°9.713 2°40.074 16.753819 4.403727 34.294977 2.252597
2004-07-05 07:25:39 51°9.718 2°40.098 16.755049 4.403938 34.296187 2.185178
2004-07-05 07:25:44 51°9.721 2°40.117 16.755049 4.403938 34.296187 2.185178
2004-07-05 07:25:49 51°9.724 2°40.135 16.755939 4.403832 34.295896 2.185178
2004-07-05 07:25:53 51°9.726 2°40.149 16.757254 4.404043 34.297106 2.252597
2004-07-05 07:25:59 51°9.728 2°40.168 16.76179 4.40341 34.290962 2.117759
2004-07-05 07:26:04 51°9.728 2°40.183 16.762723 4.404254 34.295802 2.117759
2004-07-05 07:26:08 51°9.728 2°40.194 16.765054 4.404149 34.293626 2.08405
2004-07-05 07:26:13 51°9.727 2°40.208 16.765054 4.404149 34.293626 2.08405
2004-07-05 07:26:19 51°9.726 2°40.222 16.766029 4.403832 34.289612 2.185178
2004-07-05 07:26:24 51°9.724 2°40.234 16.770056 4.404676 34.293823 2.151469
2004-07-05 07:26:28 51°9.723 2°40.242 16.767937 4.40457 34.291647 2.016631
2004-07-05 07:26:33 51°9.721 2°40.252 16.772218 4.404676 34.290682 2.050341
2004-07-05 07:26:39 51°9.718 2°40.263 16.772854 4.404676 34.288797 2.151469
2004-07-05 07:26:44 51°9.716 2°40.272 16.772854 4.404676 34.288797 2.151469
2004-07-05 07:26:48 51°9.714 2°40.278 16.773702 4.405098 34.291216 2.252597
2004-07-05 07:26:53 51°9.711 2°40.286 16.775397 4.405098 34.288704 2.117759
2004-07-05 07:26:59 51°9.707 2°40.294 16.778152 4.405414 34.290204 2.151469
2004-07-05 07:27:04 51°9.705 2°40.301 16.779127 4.405309 34.289285 2.08405
2004-07-05 07:27:08 51°9.702 2°40.306 16.780017 4.405519 34.289867 2.151469
2004-07-05 07:27:13 51°9.699 2°40.312 16.780017 4.405519 34.289867 2.151469
2004-07-05 07:27:19 51°9.696 2°40.319 16.781077 4.405519 34.287983 2.185178
2004-07-05 07:27:24 51°9.693 2°40.324 16.782645 4.405836 34.288855 2.218888
2004-07-05 07:27:28 51°9.691 2°40.328 16.78345 4.405414 34.285181 2.218888
2004-07-05 07:27:33 51°9.689 2°40.332 16.784001 4.367128 33.949473 2.218888
2004-07-05 07:27:39 51°9.685 2°40.338 16.78523 4.406047 34.287553 2.185178
2004-07-05 07:27:43 51°9.683 2°40.341 16.78523 4.406047 34.287553 2.185178
2004-07-05 07:27:49 51°9.68 2°40.346 16.785993 4.405625 34.283879 2.151469
2004-07-05 07:27:53 51°9.678 2°40.349 16.786205 4.406152 34.286588 2.151469
2004-07-05 07:27:58 51°9.675 2°40.353 16.786714 4.406258 34.286879 2.218888
2004-07-05 07:28:04 51°9.672 2°40.357 16.787095 4.406363 34.285915 2.286306
2004-07-05 07:28:09 51°9.669 2°40.361 16.787688 4.406258 34.285624 2.218888
2004-07-05 07:28:13 51°9.667 2°40.363 16.787688 4.406258 34.285624 2.218888
2004-07-05 07:28:19 51°9.664 2°40.367 16.788197 4.406363 34.285287 2.151469
2004-07-05 07:28:23 51°9.662 2°40.369 16.78879 4.406574 34.285241 2.252597
2004-07-05 07:28:28 51°9.659 2°40.372 16.7879 4.406363 34.284659 2.286306
2004-07-05 07:28:33 51°9.657 2°40.375 16.788621 4.406468 34.28495 2.286306
2004-07-05 07:28:39 51°9.654 2°40.378 16.790697 4.406152 34.281567 2.252597
2004-07-05 07:28:44 51°9.651 2°40.381 16.790697 4.406152 34.281567 2.252597
2004-07-05 07:28:49 51°9.649 2°40.383 16.790061 4.406996 34.287032 2.421144
2004-07-05 07:28:53 51°9.647 2°40.385 16.791206 4.406785 34.285195 2.320016
2004-07-05 07:28:59 51°9.644 2°40.388 16.790612 4.406258 34.281858 2.387435
2004-07-05 07:29:04 51°9.642 2°40.39 16.7904 4.406468 34.283067 2.286306
2004-07-05 07:29:09 51°9.639 2°40.392 16.791587 4.406785 34.285195 2.218888
2004-07-05 07:29:13 51°9.637 2°40.394 16.791587 4.406785 34.285195 2.218888
2004-07-05 07:29:19 51°9.635 2°40.396 16.791884 4.407523 34.290368 2.421144
2004-07-05 07:29:24 51°9.633 2°40.398 16.791672 4.406785 34.28394 2.421144
2004-07-05 07:29:29 51°9.63 2°40.4 16.791206 4.406679 34.284276 2.421144
2004-07-05 07:29:32 51°9.629 2°40.401 16.791968 4.407418 34.288822 2.387435
2004-07-05 07:29:39 51°9.626 2°40.404 16.792392 4.406468 34.280557 2.353725
2004-07-05 07:29:44 51°9.624 2°40.406 16.792392 4.406468 34.280557 2.353725
2004-07-05 07:29:48 51°9.622 2°40.407 16.795019 4.40689 34.28423 2.353725
2004-07-05 07:29:53 51°9.62 2°40.409 16.793875 4.40689 34.283603 2.454853
2004-07-05 07:29:59 51°9.617 2°40.411 16.793579 4.40689 34.28423 2.421144
2004-07-05 07:30:04 51°9.615 2°40.413 16.797011 4.406468 34.279302 2.454853
2004-07-05 07:30:09 51°9.612 2°40.415 16.795952 4.406785 34.280802 2.421144
2004-07-05 07:30:12 51°9.611 2°40.416 16.795952 4.406785 34.280802 2.421144
2004-07-05 07:30:19 51°9.609 2°40.418 16.794977 4.406257 34.277466 2.421144
2004-07-05 07:30:23 51°9.607 2°40.419 16.796502 4.407101 34.284185 2.488563
2004-07-05 07:30:28 51°9.605 2°40.421 16.794553 4.40689 34.281093 2.454853
2004-07-05 07:30:33 51°9.604 2°40.422 16.796121 4.407101 34.282302 2.421144
2004-07-05 07:30:39 51°9.601 2°40.424 16.796036 4.406996 34.280756 2.421144
2004-07-05 07:30:44 51°9.599 2°40.425 16.796036 4.406996 34.280756 2.421144
2004-07-05 07:30:49 51°9.597 2°40.427 16.795824 4.407101 34.28293 2.555982
2004-07-05 07:30:53 51°9.596 2°40.428 16.797816 4.407207 34.282593 2.488563
2004-07-05 07:30:59 51°9.594 2°40.43 16.797307 4.406679 34.278002 2.522272
2004-07-05 07:31:04 51°9.592 2°40.431 16.795952 4.40689 34.281093 2.555982
2004-07-05 07:31:08 51°9.591 2°40.432 16.795952 4.406996 34.280756 2.454853
2004-07-05 07:31:13 51°9.589 2°40.434 16.795952 4.406996 34.280756 2.454853
2004-07-05 07:31:19 51°9.587 2°40.435 16.796418 4.404781 34.261475 2.522272
2004-07-05 07:31:24 51°9.586 2°40.436 16.795655 4.403515 34.250457 2.522272
2004-07-05 07:31:28 51°9.585 2°40.437 16.798409 4.407101 34.281047 2.589691
2004-07-05 07:31:33 51°9.583 2°40.438 16.797223 4.403937 34.25413 2.522272
2004-07-05 07:31:39 51°9.581 2°40.44 16.79807 4.402882 34.244949 2.589691
2004-07-05 07:31:44 51°9.58 2°40.442 16.79807 4.402882 34.244949 2.589691
2004-07-05 07:31:48 51°9.579 2°40.443 16.797011 4.402777 34.243404 2.522272
2004-07-05 07:31:53 51°9.578 2°40.444 16.797689 4.406046 34.271865 2.522272
2004-07-05 07:31:59 51°9.576 2°40.446 16.80057 4.403726 34.251667 2.454853
2004-07-05 07:32:04 51°9.575 2°40.447 16.800655 4.402671 34.241233 2.555982
2004-07-05 07:32:08 51°9.574 2°40.448 16.800146 4.404675 34.258049 2.589691
2004-07-05 07:32:13 51°9.573 2°40.449 16.800146 4.404675 34.258049 2.589691
2004-07-05 07:32:18 51°9.572 2°40.452 16.801502 4.404992 34.26143 2.555982
2004-07-05 07:32:24 51°9.571 2°40.455 16.801841 4.405097 34.262348 2.522272
2004-07-05 07:32:28 51°9.57 2°40.457 16.804299 4.40689 34.277329 2.522272
2004-07-05 07:32:33 51°9.57 2°40.461 16.804383 4.404253 34.253123 2.522272
2004-07-05 07:32:37 51°9.569 2°40.464 16.804383 4.407839 34.282456 2.522272
2004-07-05 07:32:44 51°9.569 2°40.469 16.804383 4.407839 34.282456 2.522272
2004-07-05 07:32:49 51°9.57 2°40.473 16.807053 4.403621 34.246361 2.488563
2004-07-05 07:32:52 51°9.57 2°40.476 16.808112 4.403199 34.24269 2.488563
2004-07-05 07:32:59 51°9.571 2°40.482 16.808324 4.406152 34.267767 2.522272
2004-07-05 07:33:04 51°9.572 2°40.488 16.808917 4.40689 34.27482 2.522272
2004-07-05 07:33:09 51°9.574 2°40.493 16.80862 4.407417 34.278156 2.555982
2004-07-05 07:33:13 51°9.577 2°40.497 16.80862 4.407417 34.278156 2.555982
2004-07-05 07:33:19 51°9.581 2°40.503 16.809467 4.407417 34.276902 2.454853
2004-07-05 07:33:24 51°9.585 2°40.508 16.809001 4.406046 34.264341 2.488563
2004-07-05 07:33:29 51°9.589 2°40.512 16.808578 4.408789 34.286327 2.522272
2004-07-05 07:33:34 51°9.595 2°40.516 16.810865 4.408261 34.282365 2.488563
2004-07-05 07:33:39 51°9.601 2°40.519 16.811077 4.40689 34.26855 2.488563
2004-07-05 07:33:44 51°9.608 2°40.521 16.811077 4.40689 34.26855 2.488563
2004-07-05 07:33:48 51°9.614 2°40.522 16.808324 4.406152 34.263378 2.555982
2004-07-05 07:33:53 51°9.623 2°40.522 16.808239 4.406574 34.265796 2.555982
2004-07-05 07:33:59 51°9.633 2°40.52 16.808027 4.406046 34.259953 2.488563
2004-07-05 07:34:04 51°9.643 2°40.517 16.808493 4.404886 34.249857 2.555982
2004-07-05 07:34:09 51°9.653 2°40.513 16.808239 4.408789 34.286327 2.522272
2004-07-05 07:34:13 51°9.661 2°40.508 16.808239 4.408789 34.286327 2.522272
2004-07-05 07:34:19 51°9.674 2°40.5 16.808408 4.405941 34.260289 2.488563
2004-07-05 07:34:23 51°9.682 2°40.493 16.811035 4.405519 34.257244 2.555982
2004-07-05 07:34:28 51°9.693 2°40.482 16.814424 4.403831 34.243185 2.488563
2004-07-05 07:34:32 51°9.702 2°40.473 16.817516 4.404992 34.253281 2.454853
2004-07-05 07:34:39 51°9.717 2°40.454 16.8201 4.403515 34.239805 2.522272
2004-07-05 07:34:44 51°9.727 2°40.439 16.8201 4.403515 34.239805 2.522272
2004-07-05 07:34:49 51°9.738 2°40.422 16.822176 4.405097 34.253573 2.488563
2004-07-05 07:34:53 51°9.745 2°40.407 16.823023 4.407628 34.276229 2.555982
2004-07-05 07:34:59 51°9.756 2°40.383 16.824336 4.40457 34.24773 2.454853
2004-07-05 07:35:04 51°9.764 2°40.362 16.826708 4.405519 34.252858 2.421144
2004-07-05 07:35:08 51°9.769 2°40.343 16.828444 4.405624 34.254402 2.421144
2004-07-05 07:35:14 51°9.777 2°40.314 16.828444 4.405624 34.254402 2.421144
2004-07-05 07:35:19 51°9.783 2°40.288 16.828741 4.408472 34.275422 2.387435
2004-07-05 07:35:24 51°9.788 2°40.262 16.83052 4.407523 34.264655 2.387435
2004-07-05 07:35:29 51°9.793 2°40.235 16.83268 4.404991 34.242006 2.286306
2004-07-05 07:35:34 51°9.796 2°40.207 16.833442 4.406679 34.256061 2.454853
2004-07-05 07:35:39 51°9.798 2°40.178 16.833357 4.408999 34.274369 2.320016
2004-07-05 07:35:43 51°9.798 2°40.154 16.833357 4.408999 34.274369 2.320016
2004-07-05 07:35:49 51°9.797 2°40.118 16.83268 4.408788 34.270027 2.218888
2004-07-05 07:35:53 51°9.795 2°40.095 16.833484 4.406995 34.253176 2.185178
2004-07-05 07:35:59 51°9.792 2°40.059 16.835602 4.407628 34.258055 2.151469
2004-07-05 07:36:04 51°9.789 2°40.029 16.830308 4.410054 34.277904 2.185178
2004-07-05 07:36:08 51°9.785 2°40.005 16.82891 4.405519 34.237828 2.185178
2004-07-05 07:36:12 51°9.782 2°39.981 16.82891 4.405519 34.237828 2.185178
2004-07-05 07:36:19 51°9.774 2°39.939 16.829461 4.405624 34.239371 2.151469
2004-07-05 07:36:23 51°9.77 2°39.915 16.825988 4.406995 34.250671 2.185178
2004-07-05 07:36:29 51°9.763 2°39.879 16.824209 4.410898 34.283364 2.151469
2004-07-05 07:36:33 51°9.759 2°39.855 16.824844 4.405835 34.24058 2.218888
2004-07-05 07:36:39 51°9.754 2°39.818 16.821286 4.408155 34.260137 2.016631
2004-07-05 07:36:44 51°9.75 2°39.788 16.821286 4.408155 34.260137 2.016631
2004-07-05 07:36:48 51°9.746 2°39.763 16.820524 4.406257 34.244876 2.218888
2004-07-05 07:36:53 51°9.742 2°39.732 16.812645 4.406362 34.248298 2.016631
2004-07-05 07:36:59 51°9.738 2°39.695 16.810272 4.408683 34.267856 2.151469
2004-07-05 07:37:03 51°9.735 2°39.67 16.804553 4.406257 34.248633 1.982922
2004-07-05 07:37:09 51°9.73 2°39.633 16.804172 4.406257 34.249259 2.117759
2004-07-05 07:37:13 51°9.726 2°39.608 16.804172 4.406257 34.249259 2.117759
2004-07-05 07:37:19 51°9.721 2°39.571 16.799935 4.409949 34.282001 2.151469
2004-07-05 07:37:24 51°9.715 2°39.541 16.797774 4.406679 34.255434 2.016631
2004-07-05 07:37:29 51°9.71 2°39.51 16.797985 4.40573 34.251561 2.151469
2004-07-05 07:37:33 51°9.705 2°39.485 16.794638 4.408999 34.281892 2.252597
2004-07-05 07:37:39 51°9.698 2°39.448 16.794638 4.404886 34.249231 2.151469
2004-07-05 07:37:44 51°9.692 2°39.418 16.794638 4.404886 34.249231 2.151469
2004-07-05 07:37:48 51°9.687 2°39.393 16.791587 4.405097 34.254199 2.320016
2004-07-05 07:37:53 51°9.682 2°39.363 16.791587 4.40457 34.252116 2.353725
2004-07-05 07:37:59 51°9.675 2°39.325 16.795316 4.406046 34.266849 2.353725
2004-07-05 07:38:04 51°9.671 2°39.294 16.79557 4.407312 34.280374 2.387435
2004-07-05 07:38:09 51°9.667 2°39.263 16.793367 4.405519 34.266647 2.286306
2004-07-05 07:38:13 51°9.663 2°39.237 16.793367 4.405519 34.266647 2.286306
2004-07-05 07:38:19 51°9.659 2°39.2 16.794468 4.403515 34.24983 2.353725
2004-07-05 07:38:24 51°9.654 2°39.168 16.791926 4.404359 34.257802 2.421144
2004-07-05 07:38:28 51°9.651 2°39.143 16.790146 4.404675 34.260556 2.353725
2004-07-05 07:38:40 51°9.641 2°39.067 16.790909 4.405835 34.269402 2.320016
2004-07-05 07:38:47 51°9.634 2°39.023 16.792011 4.408261 34.292403 2.252597
2004-07-05 07:38:52 51°9.628 2°38.992 16.792604 4.408683 34.294821 2.252597
2004-07-05 07:38:57 51°9.623 2°38.961 16.792985 4.403726 34.253547 2.185178
2004-07-05 07:39:01 51°9.618 2°38.936 16.792985 4.403726 34.253547 2.185178
2004-07-05 07:39:07 51°9.612 2°38.9 16.791587 4.405203 34.267656 2.286306
2004-07-05 07:39:12 51°9.607 2°38.868 16.791799 4.404675 34.261811 2.353725
2004-07-05 07:39:17 51°9.602 2°38.837 16.793579 4.402988 34.24712 2.320016
2004-07-05 07:39:21 51°9.598 2°38.811 16.792562 4.404043 34.257555 2.286306
2004-07-05 07:39:25 51°9.594 2°38.786 16.789468 4.402988 34.247747 2.286306
2004-07-05 07:39:32 51°9.588 2°38.742 16.789468 4.402988 34.247747 2.286306
2004-07-05 07:39:36 51°9.585 2°38.716 16.78896 4.407629 34.288148 2.488563
2004-07-05 07:39:40 51°9.581 2°38.691 16.786798 4.406996 34.282639 2.286306
2004-07-05 07:39:47 51°9.575 2°38.648 16.78523 4.408261 34.292403 2.252597
2004-07-05 07:39:52 51°9.57 2°38.616 16.782094 4.407312 34.284139 2.353725
2004-07-05 07:39:57 51°9.565 2°38.584 16.780229 4.408472 34.295495 2.353725
2004-07-05 07:40:01 51°9.561 2°38.559 16.780229 4.408472 34.295495 2.353725
2004-07-05 07:40:07 51°9.554 2°38.522 16.778237 4.408156 34.292112 2.185178